Time,TemperatureF,DewpointF,PressureIn,WindDirection,WindDirectionDegrees,WindSpeedMPH,WindSpeedGustMPH,Humidity,HourlyPrecipIn,Conditions,Clouds,dailyrainin,SoftwareType,DateUTC
2013-02-06 00:00:00,27.2,23.8,29.89,NW,319,3.0,-999.0,87,0.00,,,0.00,Wunderground v.1.15,2013-02-06 05:00:00,
2013-02-06 00:01:00,27.2,23.6,29.90,WNW,299,3.0,-999.0,86,0.00,,,0.00,Wunderground v.1.15,2013-02-06 05:01:00,
2013-02-06 00:03:00,27.2,23.6,29.90,NW,316,2.0,-999.0,86,0.00,,,0.00,Wunderground v.1.15,2013-02-06 05:03:00,
2013-02-06 00:04:00,27.2,23.6,29.90,WNW,298,6.0,-999.0,86,0.00,,,0.00,Wunderground v.1.15,2013-02-06 05:04:00,
2013-02-06 00:07:00,27.0,23.4,29.90,NW,323,2.0,-999.0,86,0.00,,,0.00,Wunderground v.1.15,2013-02-06 05:07:00,
2013-02-06 00:10:00,27.0,23.4,29.90,NW,315,2.0,-999.0,86,0.00,,,0.00,Wunderground v.1.15,2013-02-06 05:10:00,
2013-02-06 00:12:00,27.0,23.4,29.90,WNW,302,3.0,-999.0,86,0.00,,,0.00,Wunderground v.1.15,2013-02-06 05:12:00,
2013-02-06 00:14:00,27.0,23.4,29.90,NW,322,2.0,-999.0,86,0.00,,,0.00,Wunderground v.1.15,2013-02-06 05:14:00,
2013-02-06 00:15:00,26.9,23.3,29.90,NE,37,2.0,-999.0,86,0.00,,,0.00,Wunderground v.1.15,2013-02-06 05:15:00,
2013-02-06 00:18:00,26.7,23.1,29.90,NW,318,8.0,-999.0,86,0.00,,,0.00,Wunderground v.1.15,2013-02-06 05:18:00,
2013-02-06 00:19:00,26.7,23.1,29.90,NW,325,3.0,-999.0,86,0.00,,,0.00,Wunderground v.1.15,2013-02-06 05:19:00,
2013-02-06 00:20:00,26.6,22.7,29.90,NNW,339,4.0,-999.0,85,0.00,,,0.00,Wunderground v.1.15,2013-02-06 05:20:00,
2013-02-06 00:21:00,26.6,22.7,29.90,WNW,296,6.0,-999.0,85,0.00,,,0.00,Wunderground v.1.15,2013-02-06 05:21:00,
2013-02-06 00:25:00,26.3,22.4,29.90,NW,326,2.0,-999.0,85,0.00,,,0.00,Wunderground v.1.15,2013-02-06 05:25:00,
2013-02-06 00:26:00,26.3,22.4,29.90,NW,311,6.0,-999.0,85,0.00,,,0.00,Wunderground v.1.15,2013-02-06 05:26:00,
2013-02-06 00:28:00,26.3,22.4,29.90,NW,312,2.0,-999.0,85,0.00,,,0.00,Wunderground v.1.15,2013-02-06 05:28:00,
2013-02-06 00:29:00,26.3,22.4,29.90,NW,320,5.0,-999.0,85,0.00,,,0.00,Wunderground v.1.15,2013-02-06 05:29:00,
2013-02-06 00:31:00,26.3,22.1,29.91,NW,306,3.0,-999.0,84,0.00,,,0.00,Wunderground v.1.15,2013-02-06 05:31:00,
2013-02-06 00:33:00,26.1,21.9,29.91,WNW,298,6.0,-999.0,84,0.00,,,0.00,Wunderground v.1.15,2013-02-06 05:33:00,
2013-02-06 00:36:00,26.1,21.9,29.91,NW,306,1.0,-999.0,84,0.00,,,0.00,Wunderground v.1.15,2013-02-06 05:36:00,
2013-02-06 00:38:00,26.1,21.9,29.91,WNW,302,2.0,-999.0,84,0.00,,,0.00,Wunderground v.1.15,2013-02-06 05:38:00,
2013-02-06 00:39:00,26.1,21.9,29.91,NW,323,1.0,-999.0,84,0.00,,,0.00,Wunderground v.1.15,2013-02-06 05:39:00,
2013-02-06 00:40:00,26.1,21.9,29.91,NW,322,1.0,-999.0,84,0.00,,,0.00,Wunderground v.1.15,2013-02-06 05:40:00,
2013-02-06 00:44:00,26.0,21.8,29.91,WNW,302,2.0,-999.0,84,0.00,,,0.00,Wunderground v.1.15,2013-02-06 05:44:00,
2013-02-06 00:45:00,26.0,21.8,29.91,NW,326,6.0,-999.0,84,0.00,,,0.00,Wunderground v.1.15,2013-02-06 05:45:00,
2013-02-06 00:46:00,26.0,21.8,29.92,NW,306,1.0,-999.0,84,0.00,,,0.00,Wunderground v.1.15,2013-02-06 05:46:00,
2013-02-06 00:49:00,26.0,21.8,29.92,WNW,295,1.0,-999.0,84,0.00,,,0.00,Wunderground v.1.15,2013-02-06 05:49:00,
2013-02-06 00:50:00,26.0,21.8,29.92,WNW,295,0.0,-999.0,84,0.00,,,0.00,Wunderground v.1.15,2013-02-06 05:50:00,
2013-02-06 00:53:00,26.0,21.5,29.92,NW,322,0.0,-999.0,83,0.00,,,0.00,Wunderground v.1.15,2013-02-06 05:53:00,
2013-02-06 00:54:00,26.0,21.5,29.92,NW,305,1.0,-999.0,83,0.00,,,0.00,Wunderground v.1.15,2013-02-06 05:54:00,
2013-02-06 00:56:00,25.8,21.3,29.92,NNW,329,0.0,-999.0,83,0.00,,,0.00,Wunderground v.1.15,2013-02-06 05:56:00,
2013-02-06 00:58:00,25.8,21.6,29.92,NNW,329,0.0,-999.0,84,0.00,,,0.00,Wunderground v.1.15,2013-02-06 05:58:00,
2013-02-06 01:01:00,25.7,21.3,29.92,NNW,336,2.0,-999.0,83,0.00,,,0.00,Wunderground v.1.15,2013-02-06 06:01:00,
2013-02-06 01:03:00,25.7,21.3,29.92,North,357,5.0,-999.0,83,0.00,,,0.00,Wunderground v.1.15,2013-02-06 06:03:00,
2013-02-06 01:07:00,25.1,20.4,29.92,North,0,3.0,-999.0,82,0.00,,,0.00,Wunderground v.1.15,2013-02-06 06:07:00,
2013-02-06 01:09:00,25.1,20.4,29.92,North,353,3.0,-999.0,82,0.00,,,0.00,Wunderground v.1.15,2013-02-06 06:09:00,
2013-02-06 01:10:00,25.1,20.4,29.92,NE,41,7.0,-999.0,82,0.00,,,0.00,Wunderground v.1.15,2013-02-06 06:10:00,
2013-02-06 01:12:00,25.0,20.0,29.92,NW,308,3.0,-999.0,81,0.00,,,0.00,Wunderground v.1.15,2013-02-06 06:12:00,
2013-02-06 01:15:00,24.8,19.8,29.92,NNW,343,2.0,-999.0,81,0.00,,,0.00,Wunderground v.1.15,2013-02-06 06:15:00,
2013-02-06 01:16:00,24.8,19.8,29.94,NW,318,5.0,-999.0,81,0.00,,,0.00,Wunderground v.1.15,2013-02-06 06:16:00,
2013-02-06 01:17:00,24.8,19.8,29.94,NNW,329,1.0,-999.0,81,0.00,,,0.00,Wunderground v.1.15,2013-02-06 06:17:00,
2013-02-06 01:20:00,24.7,19.7,29.94,North,0,2.0,-999.0,81,0.00,,,0.00,Wunderground v.1.15,2013-02-06 06:20:00,
2013-02-06 01:24:00,24.7,19.7,29.94,NNW,347,2.0,-999.0,81,0.00,,,0.00,Wunderground v.1.15,2013-02-06 06:24:00,
2013-02-06 01:25:00,24.7,19.7,29.94,NNW,332,0.0,-999.0,81,0.00,,,0.00,Wunderground v.1.15,2013-02-06 06:25:00,
2013-02-06 01:29:00,24.7,19.7,29.94,NNW,336,1.0,-999.0,81,0.00,,,0.00,Wunderground v.1.15,2013-02-06 06:29:00,
2013-02-06 01:31:00,24.5,19.5,29.96,North,0,2.0,-999.0,81,0.00,,,0.00,Wunderground v.1.15,2013-02-06 06:31:00,
2013-02-06 01:33:00,24.4,19.4,29.96,NW,323,5.0,-999.0,81,0.00,,,0.00,Wunderground v.1.15,2013-02-06 06:33:00,
2013-02-06 01:34:00,24.4,19.4,29.96,NW,305,5.0,-999.0,81,0.00,,,0.00,Wunderground v.1.15,2013-02-06 06:34:00,
2013-02-06 01:36:00,24.2,18.9,29.96,NNW,336,6.0,-999.0,80,0.00,,,0.00,Wunderground v.1.15,2013-02-06 06:36:00,
2013-02-06 01:38:00,24.2,18.9,29.96,NW,316,3.0,-999.0,80,0.00,,,0.00,Wunderground v.1.15,2013-02-06 06:38:00,
2013-02-06 01:41:00,23.9,18.6,29.96,NW,323,1.0,-999.0,80,0.00,,,0.00,Wunderground v.1.15,2013-02-06 06:41:00,
2013-02-06 01:43:00,23.9,18.6,29.96,NNW,329,5.0,-999.0,80,0.00,,,0.00,Wunderground v.1.15,2013-02-06 06:43:00,
2013-02-06 01:44:00,23.8,18.5,29.96,North,0,3.0,-999.0,80,0.00,,,0.00,Wunderground v.1.15,2013-02-06 06:44:00,
2013-02-06 01:46:00,23.8,18.2,29.97,NW,325,2.0,-999.0,79,0.00,,,0.00,Wunderground v.1.15,2013-02-06 06:46:00,
2013-02-06 01:50:00,23.5,17.9,29.97,NNW,346,6.0,-999.0,79,0.00,,,0.00,Wunderground v.1.15,2013-02-06 06:50:00,
2013-02-06 01:51:00,23.3,17.7,29.97,North,6,2.0,-999.0,79,0.00,,,0.00,Wunderground v.1.15,2013-02-06 06:51:00,
2013-02-06 01:53:00,23.3,17.5,29.97,NW,319,2.0,-999.0,78,0.00,,,0.00,Wunderground v.1.15,2013-02-06 06:53:00,
2013-02-06 01:55:00,23.2,17.4,29.97,North,0,2.0,-999.0,78,0.00,,,0.00,Wunderground v.1.15,2013-02-06 06:55:00,
2013-02-06 01:56:00,23.2,17.4,29.97,North,0,5.0,-999.0,78,0.00,,,0.00,Wunderground v.1.15,2013-02-06 06:56:00,
2013-02-06 01:58:00,23.2,17.4,29.97,NNW,344,6.0,-999.0,78,0.00,,,0.00,Wunderground v.1.15,2013-02-06 06:58:00,
2013-02-06 02:00:00,23.2,17.4,29.97,NNW,346,3.0,-999.0,78,0.00,,,0.00,Wunderground v.1.15,2013-02-06 07:00:00,
2013-02-06 02:01:00,23.2,17.4,29.98,North,0,1.0,-999.0,78,0.00,,,0.00,Wunderground v.1.15,2013-02-06 07:01:00,
2013-02-06 02:03:00,23.0,17.2,29.98,North,350,6.0,-999.0,78,0.00,,,0.00,Wunderground v.1.15,2013-02-06 07:03:00,
2013-02-06 02:05:00,23.0,17.2,29.98,NW,325,2.0,-999.0,78,0.00,,,0.00,Wunderground v.1.15,2013-02-06 07:05:00,
2013-02-06 02:06:00,22.9,17.1,29.98,North,0,2.0,-999.0,78,0.00,,,0.00,Wunderground v.1.15,2013-02-06 07:06:00,
2013-02-06 02:09:00,22.9,16.8,29.98,WNW,302,2.0,-999.0,77,0.00,,,0.00,Wunderground v.1.15,2013-02-06 07:09:00,
2013-02-06 02:10:00,22.9,16.8,29.98,NNW,339,6.0,-999.0,77,0.00,,,0.00,Wunderground v.1.15,2013-02-06 07:10:00,
2013-02-06 02:12:00,22.9,16.5,29.98,NW,318,3.0,-999.0,76,0.00,,,0.00,Wunderground v.1.15,2013-02-06 07:12:00,
2013-02-06 02:14:00,22.7,16.3,29.98,NW,306,4.0,-999.0,76,0.00,,,0.00,Wunderground v.1.15,2013-02-06 07:14:00,
2013-02-06 02:15:00,22.7,16.0,29.99,NNW,329,0.0,-999.0,75,0.00,,,0.00,Wunderground v.1.15,2013-02-06 07:15:00,
2013-02-06 02:18:00,22.7,16.0,29.99,NNW,344,2.0,-999.0,75,0.00,,,0.00,Wunderground v.1.15,2013-02-06 07:18:00,
2013-02-06 02:19:00,22.7,16.0,29.99,North,357,1.0,-999.0,75,0.00,,,0.00,Wunderground v.1.15,2013-02-06 07:19:00,
2013-02-06 02:21:00,22.7,16.0,29.99,NNW,344,0.0,-999.0,75,0.00,,,0.00,Wunderground v.1.15,2013-02-06 07:21:00,
2013-02-06 02:23:00,22.7,15.7,29.99,NNW,342,1.0,-999.0,74,0.00,,,0.00,Wunderground v.1.15,2013-02-06 07:23:00,
2013-02-06 02:24:00,22.7,15.7,29.99,North,353,2.0,-999.0,74,0.00,,,0.00,Wunderground v.1.15,2013-02-06 07:24:00,
2013-02-06 02:25:00,22.7,15.7,29.99,NW,305,3.0,-999.0,74,0.00,,,0.00,Wunderground v.1.15,2013-02-06 07:25:00,
2013-02-06 02:26:00,22.7,15.7,29.99,North,353,1.0,-999.0,74,0.00,,,0.00,Wunderground v.1.15,2013-02-06 07:26:00,
2013-02-06 02:28:00,22.7,15.3,29.99,North,3,3.0,-999.0,73,0.00,,,0.00,Wunderground v.1.15,2013-02-06 07:28:00,
2013-02-06 02:29:00,22.7,15.3,29.99,NNW,343,1.0,-999.0,73,0.00,,,0.00,Wunderground v.1.15,2013-02-06 07:29:00,
2013-02-06 02:30:00,22.7,15.3,29.99,NW,318,6.0,-999.0,73,0.00,,,0.00,Wunderground v.1.15,2013-02-06 07:30:00,
2013-02-06 02:31:00,22.7,15.3,30.00,NW,311,4.0,-999.0,73,0.00,,,0.00,Wunderground v.1.15,2013-02-06 07:31:00,
2013-02-06 02:33:00,22.7,15.0,30.00,North,0,1.0,-999.0,72,0.00,,,0.00,Wunderground v.1.15,2013-02-06 07:33:00,
2013-02-06 02:34:00,22.7,15.0,30.00,North,0,2.0,-999.0,72,0.00,,,0.00,Wunderground v.1.15,2013-02-06 07:34:00,
2013-02-06 02:36:00,22.7,15.0,30.00,NW,318,0.0,-999.0,72,0.00,,,0.00,Wunderground v.1.15,2013-02-06 07:36:00,
2013-02-06 02:39:00,22.7,14.7,30.00,NNW,337,0.0,-999.0,71,0.00,,,0.00,Wunderground v.1.15,2013-02-06 07:39:00,
2013-02-06 02:41:00,22.7,14.7,30.00,NNW,342,0.0,-999.0,71,0.00,,,0.00,Wunderground v.1.15,2013-02-06 07:41:00,
2013-02-06 02:42:00,22.7,14.7,30.00,WNW,302,0.0,-999.0,71,0.00,,,0.00,Wunderground v.1.15,2013-02-06 07:42:00,
2013-02-06 02:44:00,22.7,14.7,30.00,North,353,1.0,-999.0,71,0.00,,,0.00,Wunderground v.1.15,2013-02-06 07:44:00,
2013-02-06 02:45:00,22.7,14.7,30.00,NW,311,1.0,-999.0,71,0.00,,,0.00,Wunderground v.1.15,2013-02-06 07:45:00,
2013-02-06 02:46:00,22.7,14.7,30.01,NW,320,0.0,-999.0,71,0.00,,,0.00,Wunderground v.1.15,2013-02-06 07:46:00,
2013-02-06 02:47:00,22.7,14.7,30.01,NW,326,0.0,-999.0,71,0.00,,,0.00,Wunderground v.1.15,2013-02-06 07:47:00,
2013-02-06 02:49:00,22.5,14.5,30.01,NW,326,0.0,-999.0,71,0.00,,,0.00,Wunderground v.1.15,2013-02-06 07:49:00,
2013-02-06 02:51:00,22.5,14.5,30.01,NW,326,0.0,-999.0,71,0.00,,,0.00,Wunderground v.1.15,2013-02-06 07:51:00,
2013-02-06 02:52:00,22.5,14.5,30.01,NW,326,0.0,-999.0,71,0.00,,,0.00,Wunderground v.1.15,2013-02-06 07:52:00,
2013-02-06 02:55:00,22.4,14.1,30.01,NNW,329,1.0,-999.0,70,0.00,,,0.00,Wunderground v.1.15,2013-02-06 07:55:00,
2013-02-06 02:56:00,22.4,14.1,30.01,WNW,288,1.0,-999.0,70,0.00,,,0.00,Wunderground v.1.15,2013-02-06 07:56:00,
2013-02-06 02:57:00,22.4,14.1,30.01,WNW,288,1.0,-999.0,70,0.00,,,0.00,Wunderground v.1.15,2013-02-06 07:57:00,
2013-02-06 03:00:00,22.2,13.9,30.02,NNW,333,1.0,-999.0,70,0.00,,,0.00,Wunderground v.1.15,2013-02-06 08:00:00,
2013-02-06 03:02:00,22.1,13.8,30.02,NNW,333,0.0,-999.0,70,0.00,,,0.00,Wunderground v.1.15,2013-02-06 08:02:00,
2013-02-06 03:03:00,22.1,13.8,30.02,NNW,333,0.0,-999.0,70,0.00,,,0.00,Wunderground v.1.15,2013-02-06 08:03:00,
2013-02-06 03:06:00,21.9,13.6,30.02,NNW,333,0.0,-999.0,70,0.00,,,0.00,Wunderground v.1.15,2013-02-06 08:06:00,
2013-02-06 03:07:00,21.9,13.6,30.02,NNW,333,0.0,-999.0,70,0.00,,,0.00,Wunderground v.1.15,2013-02-06 08:07:00,
2013-02-06 03:08:00,21.9,13.6,30.02,NNW,333,0.0,-999.0,70,0.00,,,0.00,Wunderground v.1.15,2013-02-06 08:08:00,
2013-02-06 03:11:00,21.8,13.5,30.02,NNW,333,0.0,-999.0,70,0.00,,,0.00,Wunderground v.1.15,2013-02-06 08:11:00,
2013-02-06 03:12:00,21.6,13.3,30.02,NNW,333,0.0,-999.0,70,0.00,,,0.00,Wunderground v.1.15,2013-02-06 08:12:00,
2013-02-06 03:13:00,21.6,13.3,30.02,NNW,333,0.0,-999.0,70,0.00,,,0.00,Wunderground v.1.15,2013-02-06 08:13:00,
2013-02-06 03:17:00,21.4,13.1,30.04,NNW,333,0.0,-999.0,70,0.00,,,0.00,Wunderground v.1.15,2013-02-06 08:17:00,
2013-02-06 03:18:00,21.3,13.0,30.04,NNW,333,0.0,-999.0,70,0.00,,,0.00,Wunderground v.1.15,2013-02-06 08:18:00,
2013-02-06 03:19:00,21.3,13.0,30.04,NNW,333,1.0,-999.0,70,0.00,,,0.00,Wunderground v.1.15,2013-02-06 08:19:00,
2013-02-06 03:22:00,21.1,12.8,30.04,NNW,333,0.0,-999.0,70,0.00,,,0.00,Wunderground v.1.15,2013-02-06 08:22:00,
2013-02-06 03:23:00,21.1,12.8,30.04,NNW,333,0.0,-999.0,70,0.00,,,0.00,Wunderground v.1.15,2013-02-06 08:23:00,
2013-02-06 03:24:00,21.1,13.2,30.04,NNW,333,0.0,-999.0,71,0.00,,,0.00,Wunderground v.1.15,2013-02-06 08:24:00,
2013-02-06 03:27:00,21.0,13.1,30.04,NNW,333,0.0,-999.0,71,0.00,,,0.00,Wunderground v.1.15,2013-02-06 08:27:00,
2013-02-06 03:28:00,21.0,13.1,30.04,NNW,333,0.0,-999.0,71,0.00,,,0.00,Wunderground v.1.15,2013-02-06 08:28:00,
2013-02-06 03:29:00,21.0,13.1,30.04,NNW,333,0.0,-999.0,71,0.00,,,0.00,Wunderground v.1.15,2013-02-06 08:29:00,
2013-02-06 03:32:00,20.8,12.9,30.03,NNW,333,0.0,-999.0,71,0.00,,,0.00,Wunderground v.1.15,2013-02-06 08:32:00,
2013-02-06 03:33:00,20.8,12.9,30.03,NNW,333,0.0,-999.0,71,0.00,,,0.00,Wunderground v.1.15,2013-02-06 08:33:00,
2013-02-06 03:34:00,20.8,12.9,30.03,NNW,333,0.0,-999.0,71,0.00,,,0.00,Wunderground v.1.15,2013-02-06 08:34:00,
2013-02-06 03:35:00,20.8,12.9,30.03,NNW,333,0.0,-999.0,71,0.00,,,0.00,Wunderground v.1.15,2013-02-06 08:35:00,
2013-02-06 03:38:00,20.6,12.7,30.03,NNW,333,0.0,-999.0,71,0.00,,,0.00,Wunderground v.1.15,2013-02-06 08:38:00,
2013-02-06 03:39:00,20.6,12.7,30.03,NNW,333,0.0,-999.0,71,0.00,,,0.00,Wunderground v.1.15,2013-02-06 08:39:00,
2013-02-06 03:40:00,20.5,12.6,30.03,NNW,333,0.0,-999.0,71,0.00,,,0.00,Wunderground v.1.15,2013-02-06 08:40:00,
2013-02-06 03:43:00,20.5,12.6,30.03,NNW,333,0.0,-999.0,71,0.00,,,0.00,Wunderground v.1.15,2013-02-06 08:43:00,
2013-02-06 03:45:00,20.3,12.4,30.03,NNW,333,0.0,-999.0,71,0.00,,,0.00,Wunderground v.1.15,2013-02-06 08:45:00,
2013-02-06 03:48:00,20.2,12.3,30.04,NNW,333,0.0,-999.0,71,0.00,,,0.00,Wunderground v.1.15,2013-02-06 08:48:00,
2013-02-06 03:49:00,20.2,12.3,30.04,NNW,333,0.0,-999.0,71,0.00,,,0.00,Wunderground v.1.15,2013-02-06 08:49:00,
2013-02-06 03:50:00,20.0,12.1,30.04,NNW,333,0.0,-999.0,71,0.00,,,0.00,Wunderground v.1.15,2013-02-06 08:50:00,
2013-02-06 03:52:00,19.9,12.0,30.04,NNW,333,0.0,-999.0,71,0.00,,,0.00,Wunderground v.1.15,2013-02-06 08:52:00,
2013-02-06 03:53:00,19.9,12.0,30.04,NNW,333,0.0,-999.0,71,0.00,,,0.00,Wunderground v.1.15,2013-02-06 08:53:00,
2013-02-06 03:54:00,19.9,12.0,30.04,NNW,333,0.0,-999.0,71,0.00,,,0.00,Wunderground v.1.15,2013-02-06 08:54:00,
2013-02-06 03:55:00,19.7,11.8,30.04,NNW,333,0.0,-999.0,71,0.00,,,0.00,Wunderground v.1.15,2013-02-06 08:55:00,
2013-02-06 03:57:00,19.5,11.9,30.04,NNW,333,0.0,-999.0,72,0.00,,,0.00,Wunderground v.1.15,2013-02-06 08:57:00,
2013-02-06 03:58:00,19.5,11.9,30.04,NNW,333,0.0,-999.0,72,0.00,,,0.00,Wunderground v.1.15,2013-02-06 08:58:00,
2013-02-06 04:00:00,19.5,11.9,30.04,NNW,333,0.0,-999.0,72,0.00,,,0.00,Wunderground v.1.15,2013-02-06 09:00:00,
2013-02-06 04:01:00,19.5,11.9,30.04,NNW,333,0.0,-999.0,72,0.00,,,0.00,Wunderground v.1.15,2013-02-06 09:01:00,
2013-02-06 04:04:00,19.2,11.6,30.04,NNW,333,0.0,-999.0,72,0.00,,,0.00,Wunderground v.1.15,2013-02-06 09:04:00,
2013-02-06 04:06:00,19.1,11.6,30.04,NNW,333,0.0,-999.0,72,0.00,,,0.00,Wunderground v.1.15,2013-02-06 09:06:00,
2013-02-06 04:07:00,18.9,11.4,30.04,NNW,333,0.0,-999.0,72,0.00,,,0.00,Wunderground v.1.15,2013-02-06 09:07:00,
2013-02-06 04:09:00,18.8,11.3,30.04,NNW,333,0.0,-999.0,72,0.00,,,0.00,Wunderground v.1.15,2013-02-06 09:09:00,
2013-02-06 04:10:00,18.6,11.1,30.04,NNW,333,0.0,-999.0,72,0.00,,,0.00,Wunderground v.1.15,2013-02-06 09:10:00,
2013-02-06 04:11:00,18.6,11.1,30.04,NNW,333,0.0,-999.0,72,0.00,,,0.00,Wunderground v.1.15,2013-02-06 09:11:00,
2013-02-06 04:12:00,18.3,11.1,30.04,NNW,333,0.0,-999.0,73,0.00,,,0.00,Wunderground v.1.15,2013-02-06 09:12:00,
2013-02-06 04:15:00,18.1,10.9,30.04,NNW,333,0.0,-999.0,73,0.00,,,0.00,Wunderground v.1.15,2013-02-06 09:15:00,
2013-02-06 04:16:00,17.8,10.6,30.05,NNW,333,0.0,-999.0,73,0.00,,,0.00,Wunderground v.1.15,2013-02-06 09:16:00,
2013-02-06 04:19:00,17.7,10.5,30.05,NNW,333,0.0,-999.0,73,0.00,,,0.00,Wunderground v.1.15,2013-02-06 09:19:00,
2013-02-06 04:20:00,17.5,10.3,30.05,NNW,333,0.0,-999.0,73,0.00,,,0.00,Wunderground v.1.15,2013-02-06 09:20:00,
2013-02-06 04:21:00,17.5,10.3,30.05,NNW,333,0.0,-999.0,73,0.00,,,0.00,Wunderground v.1.15,2013-02-06 09:21:00,
2013-02-06 04:22:00,17.3,10.4,30.05,NNW,333,0.0,-999.0,74,0.00,,,0.00,Wunderground v.1.15,2013-02-06 09:22:00,
2013-02-06 04:24:00,17.2,10.3,30.05,NNW,333,0.0,-999.0,74,0.00,,,0.00,Wunderground v.1.15,2013-02-06 09:24:00,
2013-02-06 04:25:00,17.2,10.3,30.05,NNW,333,0.0,-999.0,74,0.00,,,0.00,Wunderground v.1.15,2013-02-06 09:25:00,
2013-02-06 04:26:00,17.0,10.1,30.05,NNW,333,0.0,-999.0,74,0.00,,,0.00,Wunderground v.1.15,2013-02-06 09:26:00,
2013-02-06 04:28:00,16.9,10.0,30.05,NNW,333,0.0,-999.0,74,0.00,,,0.00,Wunderground v.1.15,2013-02-06 09:28:00,
2013-02-06 04:29:00,16.7,10.1,30.05,NNW,333,0.0,-999.0,75,0.00,,,0.00,Wunderground v.1.15,2013-02-06 09:29:00,
2013-02-06 04:30:00,16.7,10.1,30.05,NNW,333,0.0,-999.0,75,0.00,,,0.00,Wunderground v.1.15,2013-02-06 09:30:00,
2013-02-06 04:31:00,16.5,10.0,30.06,NNW,333,0.0,-999.0,75,0.00,,,0.00,Wunderground v.1.15,2013-02-06 09:31:00,
2013-02-06 04:33:00,16.4,9.9,30.06,NNW,333,0.0,-999.0,75,0.00,,,0.00,Wunderground v.1.15,2013-02-06 09:33:00,
2013-02-06 04:35:00,16.4,9.9,30.06,NNW,333,0.0,-999.0,75,0.00,,,0.00,Wunderground v.1.15,2013-02-06 09:35:00,
2013-02-06 04:36:00,16.2,9.7,30.06,NNW,333,0.0,-999.0,75,0.00,,,0.00,Wunderground v.1.15,2013-02-06 09:36:00,
2013-02-06 04:38:00,15.9,9.4,30.06,NNW,333,0.0,-999.0,75,0.00,,,0.00,Wunderground v.1.15,2013-02-06 09:38:00,
2013-02-06 04:40:00,15.7,9.2,30.06,NNW,333,0.0,-999.0,75,0.00,,,0.00,Wunderground v.1.15,2013-02-06 09:40:00,
2013-02-06 04:41:00,15.7,9.2,30.06,NNW,333,0.0,-999.0,75,0.00,,,0.00,Wunderground v.1.15,2013-02-06 09:41:00,
2013-02-06 04:42:00,15.6,9.1,30.06,NNW,333,0.0,-999.0,75,0.00,,,0.00,Wunderground v.1.15,2013-02-06 09:42:00,
2013-02-06 04:44:00,15.4,9.2,30.06,NNW,333,0.0,-999.0,76,0.00,,,0.00,Wunderground v.1.15,2013-02-06 09:44:00,
2013-02-06 04:46:00,15.2,9.3,30.08,NNW,333,0.0,-999.0,77,0.00,,,0.00,Wunderground v.1.15,2013-02-06 09:46:00,
2013-02-06 04:47:00,15.2,9.3,30.08,NNW,333,0.0,-999.0,77,0.00,,,0.00,Wunderground v.1.15,2013-02-06 09:47:00,
2013-02-06 04:49:00,15.1,9.2,30.08,NNW,333,0.0,-999.0,77,0.00,,,0.00,Wunderground v.1.15,2013-02-06 09:49:00,
2013-02-06 04:51:00,14.9,9.3,30.08,NNW,333,0.0,-999.0,78,0.00,,,0.00,Wunderground v.1.15,2013-02-06 09:51:00,
2013-02-06 04:52:00,14.9,9.3,30.08,NNW,333,0.0,-999.0,78,0.00,,,0.00,Wunderground v.1.15,2013-02-06 09:52:00,
2013-02-06 04:53:00,14.8,9.2,30.08,NNW,333,0.0,-999.0,78,0.00,,,0.00,Wunderground v.1.15,2013-02-06 09:53:00,
2013-02-06 04:54:00,14.8,9.2,30.08,NNW,333,0.0,-999.0,78,0.00,,,0.00,Wunderground v.1.15,2013-02-06 09:54:00,
2013-02-06 04:56:00,14.8,9.2,30.08,NNW,333,0.0,-999.0,78,0.00,,,0.00,Wunderground v.1.15,2013-02-06 09:56:00,
2013-02-06 04:58:00,14.8,9.2,30.08,NNW,333,0.0,-999.0,78,0.00,,,0.00,Wunderground v.1.15,2013-02-06 09:58:00,
2013-02-06 05:01:00,14.4,8.8,30.09,NNW,333,0.0,-999.0,78,0.00,,,0.00,Wunderground v.1.15,2013-02-06 10:01:00,
2013-02-06 05:03:00,14.3,8.7,30.09,NNW,333,0.0,-999.0,78,0.00,,,0.00,Wunderground v.1.15,2013-02-06 10:03:00,
2013-02-06 05:06:00,14.1,8.8,30.09,NNW,333,0.0,-999.0,79,0.00,,,0.00,Wunderground v.1.15,2013-02-06 10:06:00,
2013-02-06 05:07:00,14.1,8.8,30.09,NNW,333,0.0,-999.0,79,0.00,,,0.00,Wunderground v.1.15,2013-02-06 10:07:00,
2013-02-06 05:08:00,14.0,8.7,30.09,NNW,333,0.0,-999.0,79,0.00,,,0.00,Wunderground v.1.15,2013-02-06 10:08:00,
2013-02-06 05:09:00,14.0,8.7,30.09,NNW,333,0.0,-999.0,79,0.00,,,0.00,Wunderground v.1.15,2013-02-06 10:09:00,
2013-02-06 05:12:00,13.8,8.5,30.09,NNW,333,0.0,-999.0,79,0.00,,,0.00,Wunderground v.1.15,2013-02-06 10:12:00,
2013-02-06 05:13:00,13.8,8.5,30.09,NNW,333,0.0,-999.0,79,0.00,,,0.00,Wunderground v.1.15,2013-02-06 10:13:00,
2013-02-06 05:14:00,13.8,8.5,30.09,NNW,333,0.0,-999.0,79,0.00,,,0.00,Wunderground v.1.15,2013-02-06 10:14:00,
2013-02-06 05:17:00,13.6,8.3,30.10,NNW,333,0.0,-999.0,79,0.00,,,0.00,Wunderground v.1.15,2013-02-06 10:17:00,
2013-02-06 05:18:00,13.5,8.2,30.10,NNW,333,0.0,-999.0,79,0.00,,,0.00,Wunderground v.1.15,2013-02-06 10:18:00,
2013-02-06 05:19:00,13.5,8.2,30.10,NNW,333,0.0,-999.0,79,0.00,,,0.00,Wunderground v.1.15,2013-02-06 10:19:00,
2013-02-06 05:23:00,13.3,8.3,30.10,NNW,333,0.0,-999.0,80,0.00,,,0.00,Wunderground v.1.15,2013-02-06 10:23:00,
2013-02-06 05:24:00,13.3,8.3,30.10,NNW,333,0.0,-999.0,80,0.00,,,0.00,Wunderground v.1.15,2013-02-06 10:24:00,
2013-02-06 05:28:00,13.1,8.1,30.10,NNW,333,0.0,-999.0,80,0.00,,,0.00,Wunderground v.1.15,2013-02-06 10:28:00,
2013-02-06 05:29:00,13.1,8.4,30.10,NNW,333,0.0,-999.0,81,0.00,,,0.00,Wunderground v.1.15,2013-02-06 10:29:00,
2013-02-06 05:33:00,13.1,8.4,30.11,NNW,333,0.0,-999.0,81,0.00,,,0.00,Wunderground v.1.15,2013-02-06 10:33:00,
2013-02-06 05:34:00,13.1,8.4,30.11,NNW,333,0.0,-999.0,81,0.00,,,0.00,Wunderground v.1.15,2013-02-06 10:34:00,
2013-02-06 05:36:00,12.9,8.2,30.11,NNW,333,0.0,-999.0,81,0.00,,,0.00,Wunderground v.1.15,2013-02-06 10:36:00,
2013-02-06 05:38:00,12.9,8.2,30.11,NNW,333,0.0,-999.0,81,0.00,,,0.00,Wunderground v.1.15,2013-02-06 10:38:00,
2013-02-06 05:39:00,12.9,8.2,30.11,NNW,333,0.0,-999.0,81,0.00,,,0.00,Wunderground v.1.15,2013-02-06 10:39:00,
2013-02-06 05:41:00,12.8,8.1,30.11,NNW,333,0.0,-999.0,81,0.00,,,0.00,Wunderground v.1.15,2013-02-06 10:41:00,
2013-02-06 05:44:00,12.6,7.9,30.11,NNW,333,0.0,-999.0,81,0.00,,,0.00,Wunderground v.1.15,2013-02-06 10:44:00,
2013-02-06 05:46:00,12.4,7.7,30.11,NNW,333,0.0,-999.0,81,0.00,,,0.00,Wunderground v.1.15,2013-02-06 10:46:00,
2013-02-06 05:49:00,12.3,7.6,30.11,NNW,333,0.0,-999.0,81,0.00,,,0.00,Wunderground v.1.15,2013-02-06 10:49:00,
2013-02-06 05:50:00,12.3,7.6,30.11,NNW,333,0.0,-999.0,81,0.00,,,0.00,Wunderground v.1.15,2013-02-06 10:50:00,
2013-02-06 05:51:00,12.3,7.6,30.11,NNW,333,0.0,-999.0,81,0.00,,,0.00,Wunderground v.1.15,2013-02-06 10:51:00,
2013-02-06 05:54:00,12.1,7.4,30.11,NNW,333,0.0,-999.0,81,0.00,,,0.00,Wunderground v.1.15,2013-02-06 10:54:00,
2013-02-06 05:55:00,12.1,7.4,30.11,NNW,333,0.0,-999.0,81,0.00,,,0.00,Wunderground v.1.15,2013-02-06 10:55:00,
2013-02-06 05:56:00,12.1,7.4,30.11,NNW,333,0.0,-999.0,81,0.00,,,0.00,Wunderground v.1.15,2013-02-06 10:56:00,
2013-02-06 06:00:00,11.9,7.2,30.11,NNW,333,0.0,-999.0,81,0.00,,,0.00,Wunderground v.1.15,2013-02-06 11:00:00,
2013-02-06 06:01:00,11.9,7.2,30.12,NNW,333,0.0,-999.0,81,0.00,,,0.00,Wunderground v.1.15,2013-02-06 11:01:00,
2013-02-06 06:05:00,11.7,7.0,30.12,NNW,333,0.0,-999.0,81,0.00,,,0.00,Wunderground v.1.15,2013-02-06 11:05:00,
2013-02-06 06:06:00,11.7,7.0,30.12,NNW,333,0.0,-999.0,81,0.00,,,0.00,Wunderground v.1.15,2013-02-06 11:06:00,
2013-02-06 06:07:00,11.7,7.0,30.12,NNW,333,0.0,-999.0,81,0.00,,,0.00,Wunderground v.1.15,2013-02-06 11:07:00,
2013-02-06 06:10:00,11.7,7.0,30.12,NNW,333,0.0,-999.0,81,0.00,,,0.00,Wunderground v.1.15,2013-02-06 11:10:00,
2013-02-06 06:11:00,11.7,7.0,30.12,NNW,333,0.0,-999.0,81,0.00,,,0.00,Wunderground v.1.15,2013-02-06 11:11:00,
2013-02-06 06:12:00,11.7,7.0,30.12,NNW,333,0.0,-999.0,81,0.00,,,0.00,Wunderground v.1.15,2013-02-06 11:12:00,
2013-02-06 06:15:00,11.7,7.0,30.13,NNW,333,0.0,-999.0,81,0.00,,,0.00,Wunderground v.1.15,2013-02-06 11:15:00,
2013-02-06 06:16:00,11.6,6.9,30.13,NNW,333,0.0,-999.0,81,0.00,,,0.00,Wunderground v.1.15,2013-02-06 11:16:00,
2013-02-06 06:17:00,11.6,6.9,30.13,NNW,333,0.0,-999.0,81,0.00,,,0.00,Wunderground v.1.15,2013-02-06 11:17:00,
2013-02-06 06:18:00,11.7,7.0,30.13,NNW,333,0.0,-999.0,81,0.00,,,0.00,Wunderground v.1.15,2013-02-06 11:18:00,
2013-02-06 06:21:00,11.7,7.3,30.13,NNW,333,0.0,-999.0,82,0.00,,,0.00,Wunderground v.1.15,2013-02-06 11:21:00,
2013-02-06 06:22:00,11.7,7.3,30.13,NNW,333,0.0,-999.0,82,0.00,,,0.00,Wunderground v.1.15,2013-02-06 11:22:00,
2013-02-06 06:25:00,11.9,7.5,30.13,NNW,333,0.0,-999.0,82,0.00,,,0.00,Wunderground v.1.15,2013-02-06 11:25:00,
2013-02-06 06:26:00,11.9,7.5,30.13,NNW,333,0.0,-999.0,82,0.00,,,0.00,Wunderground v.1.15,2013-02-06 11:26:00,
2013-02-06 06:27:00,12.1,7.9,30.13,NNW,333,0.0,-999.0,83,0.00,,,0.00,Wunderground v.1.15,2013-02-06 11:27:00,
2013-02-06 06:31:00,12.3,8.1,30.13,NNW,333,0.0,-999.0,83,0.00,,,0.00,Wunderground v.1.15,2013-02-06 11:31:00,
2013-02-06 06:32:00,12.4,8.2,30.13,NNW,333,0.0,-999.0,83,0.00,,,0.00,Wunderground v.1.15,2013-02-06 11:32:00,
2013-02-06 06:36:00,12.6,8.4,30.13,NNW,333,0.0,-999.0,83,0.00,,,0.00,Wunderground v.1.15,2013-02-06 11:36:00,
2013-02-06 06:37:00,12.6,8.4,30.13,NNW,333,0.0,-999.0,83,0.00,,,0.00,Wunderground v.1.15,2013-02-06 11:37:00,
2013-02-06 06:38:00,12.8,8.6,30.13,NNW,333,0.0,-999.0,83,0.00,,,0.00,Wunderground v.1.15,2013-02-06 11:38:00,
2013-02-06 06:41:00,13.1,8.9,30.13,NNW,333,0.0,-999.0,83,0.00,,,0.00,Wunderground v.1.15,2013-02-06 11:41:00,
2013-02-06 06:42:00,13.1,8.9,30.13,NNW,333,0.0,-999.0,83,0.00,,,0.00,Wunderground v.1.15,2013-02-06 11:42:00,
2013-02-06 06:43:00,13.1,8.9,30.13,NNW,333,0.0,-999.0,83,0.00,,,0.00,Wunderground v.1.15,2013-02-06 11:43:00,
2013-02-06 06:46:00,13.5,9.3,30.14,NNW,333,0.0,-999.0,83,0.00,,,0.00,Wunderground v.1.15,2013-02-06 11:46:00,
2013-02-06 06:47:00,13.5,9.3,30.14,NNW,333,0.0,-999.0,83,0.00,,,0.00,Wunderground v.1.15,2013-02-06 11:47:00,
2013-02-06 06:48:00,13.6,9.4,30.14,NNW,333,0.0,-999.0,83,0.00,,,0.00,Wunderground v.1.15,2013-02-06 11:48:00,
2013-02-06 06:49:00,13.6,9.4,30.14,NNW,333,0.0,-999.0,83,0.00,,,0.00,Wunderground v.1.15,2013-02-06 11:49:00,
2013-02-06 06:52:00,13.6,9.4,30.14,NNW,333,0.0,-999.0,83,0.00,,,0.00,Wunderground v.1.15,2013-02-06 11:52:00,
2013-02-06 06:53:00,13.8,9.6,30.14,NNW,333,0.0,-999.0,83,0.00,,,0.00,Wunderground v.1.15,2013-02-06 11:53:00,
2013-02-06 06:54:00,13.8,9.6,30.14,NNW,333,0.0,-999.0,83,0.00,,,0.00,Wunderground v.1.15,2013-02-06 11:54:00,
2013-02-06 06:55:00,13.8,9.6,30.14,NNW,333,0.0,-999.0,83,0.00,,,0.00,Wunderground v.1.15,2013-02-06 11:55:00,
2013-02-06 06:57:00,13.8,9.6,30.14,NNW,333,0.0,-999.0,83,0.00,,,0.00,Wunderground v.1.15,2013-02-06 11:57:00,
2013-02-06 06:58:00,13.8,9.6,30.14,NNW,333,0.0,-999.0,83,0.00,,,0.00,Wunderground v.1.15,2013-02-06 11:58:00,
2013-02-06 06:59:00,13.8,9.6,30.14,NNW,333,0.0,-999.0,83,0.00,,,0.00,Wunderground v.1.15,2013-02-06 11:59:00,
2013-02-06 07:00:00,13.8,9.6,30.14,NNW,333,0.0,-999.0,83,0.00,,,0.00,Wunderground v.1.15,2013-02-06 12:00:00,
2013-02-06 07:03:00,14.0,9.8,30.14,NNW,333,0.0,-999.0,83,0.00,,,0.00,Wunderground v.1.15,2013-02-06 12:03:00,
2013-02-06 07:04:00,14.0,9.8,30.14,NNW,333,0.0,-999.0,83,0.00,,,0.00,Wunderground v.1.15,2013-02-06 12:04:00,
2013-02-06 07:05:00,14.0,9.8,30.14,NNW,333,0.0,-999.0,83,0.00,,,0.00,Wunderground v.1.15,2013-02-06 12:05:00,
2013-02-06 07:09:00,14.0,9.8,30.14,NNW,333,0.0,-999.0,83,0.00,,,0.00,Wunderground v.1.15,2013-02-06 12:09:00,
2013-02-06 07:10:00,14.1,9.9,30.14,NNW,333,0.0,-999.0,83,0.00,,,0.00,Wunderground v.1.15,2013-02-06 12:10:00,
2013-02-06 07:11:00,14.1,9.9,30.14,NNW,333,0.0,-999.0,83,0.00,,,0.00,Wunderground v.1.15,2013-02-06 12:11:00,
2013-02-06 07:14:00,14.1,9.9,30.14,NNW,333,0.0,-999.0,83,0.00,,,0.00,Wunderground v.1.15,2013-02-06 12:14:00,
2013-02-06 07:15:00,14.1,9.9,30.15,NNW,333,0.0,-999.0,83,0.00,,,0.00,Wunderground v.1.15,2013-02-06 12:15:00,
2013-02-06 07:17:00,14.1,9.9,30.15,NNW,333,0.0,-999.0,83,0.00,,,0.00,Wunderground v.1.15,2013-02-06 12:17:00,
2013-02-06 07:19:00,14.0,9.8,30.15,NNW,333,0.0,-999.0,83,0.00,,,0.00,Wunderground v.1.15,2013-02-06 12:19:00,
2013-02-06 07:20:00,14.0,9.8,30.15,NNW,333,0.0,-999.0,83,0.00,,,0.00,Wunderground v.1.15,2013-02-06 12:20:00,
2013-02-06 07:21:00,14.0,9.8,30.15,NNW,333,0.0,-999.0,83,0.00,,,0.00,Wunderground v.1.15,2013-02-06 12:21:00,
2013-02-06 07:23:00,13.8,9.3,30.15,NNW,333,0.0,-999.0,82,0.00,,,0.00,Wunderground v.1.15,2013-02-06 12:23:00,
2013-02-06 07:24:00,13.8,9.3,30.15,NNW,333,0.0,-999.0,82,0.00,,,0.00,Wunderground v.1.15,2013-02-06 12:24:00,
2013-02-06 07:25:00,13.8,9.3,30.15,NNW,333,0.0,-999.0,82,0.00,,,0.00,Wunderground v.1.15,2013-02-06 12:25:00,
2013-02-06 07:27:00,13.6,9.1,30.15,NNW,333,0.0,-999.0,82,0.00,,,0.00,Wunderground v.1.15,2013-02-06 12:27:00,
2013-02-06 07:29:00,13.6,9.1,30.15,NNW,333,0.0,-999.0,82,0.00,,,0.00,Wunderground v.1.15,2013-02-06 12:29:00,
2013-02-06 07:30:00,13.6,9.1,30.15,NNW,333,0.0,-999.0,82,0.00,,,0.00,Wunderground v.1.15,2013-02-06 12:30:00,
2013-02-06 07:32:00,13.5,9.0,30.16,NNW,333,0.0,-999.0,82,0.00,,,0.00,Wunderground v.1.15,2013-02-06 12:32:00,
2013-02-06 07:35:00,13.5,9.0,30.16,NNW,333,0.0,-999.0,82,0.00,,,0.00,Wunderground v.1.15,2013-02-06 12:35:00,
2013-02-06 07:37:00,13.3,8.8,30.16,NNW,333,0.0,-999.0,82,0.00,,,0.00,Wunderground v.1.15,2013-02-06 12:37:00,
2013-02-06 07:40:00,13.3,8.8,30.16,NNW,333,0.0,-999.0,82,0.00,,,0.00,Wunderground v.1.15,2013-02-06 12:40:00,
2013-02-06 07:42:00,13.1,8.6,30.16,NNW,333,0.0,-999.0,82,0.00,,,0.00,Wunderground v.1.15,2013-02-06 12:42:00,
2013-02-06 07:43:00,13.1,8.6,30.16,NNW,333,0.0,-999.0,82,0.00,,,0.00,Wunderground v.1.15,2013-02-06 12:43:00,
2013-02-06 07:45:00,13.1,8.6,30.17,NNW,333,0.0,-999.0,82,0.00,,,0.00,Wunderground v.1.15,2013-02-06 12:45:00,
2013-02-06 07:47:00,13.1,8.6,30.17,NNW,333,0.0,-999.0,82,0.00,,,0.00,Wunderground v.1.15,2013-02-06 12:47:00,
2013-02-06 07:48:00,13.1,8.6,30.17,NNW,333,0.0,-999.0,82,0.00,,,0.00,Wunderground v.1.15,2013-02-06 12:48:00,
2013-02-06 07:50:00,12.9,8.4,30.17,NNW,333,0.0,-999.0,82,0.00,,,0.00,Wunderground v.1.15,2013-02-06 12:50:00,
2013-02-06 07:52:00,13.1,8.6,30.17,NNW,333,0.0,-999.0,82,0.00,,,0.00,Wunderground v.1.15,2013-02-06 12:52:00,
2013-02-06 07:53:00,13.1,8.6,30.17,NNW,333,0.0,-999.0,82,0.00,,,0.00,Wunderground v.1.15,2013-02-06 12:53:00,
2013-02-06 07:54:00,13.1,8.9,30.17,NNW,333,0.0,-999.0,83,0.00,,,0.00,Wunderground v.1.15,2013-02-06 12:54:00,
2013-02-06 07:56:00,12.9,8.4,30.17,NNW,333,0.0,-999.0,82,0.00,,,0.00,Wunderground v.1.15,2013-02-06 12:56:00,
2013-02-06 07:57:00,12.9,8.4,30.17,NNW,333,0.0,-999.0,82,0.00,,,0.00,Wunderground v.1.15,2013-02-06 12:57:00,
2013-02-06 07:58:00,12.9,8.4,30.17,NNW,333,0.0,-999.0,82,0.00,,,0.00,Wunderground v.1.15,2013-02-06 12:58:00,
2013-02-06 07:59:00,12.9,8.4,30.17,NNW,333,0.0,-999.0,82,0.00,,,0.00,Wunderground v.1.15,2013-02-06 12:59:00,
2013-02-06 08:01:00,12.9,8.4,30.17,NNW,333,0.0,-999.0,82,0.00,,,0.00,Wunderground v.1.15,2013-02-06 13:01:00,
2013-02-06 08:03:00,12.9,8.7,30.17,NNW,333,0.0,-999.0,83,0.00,,,0.00,Wunderground v.1.15,2013-02-06 13:03:00,
2013-02-06 08:05:00,12.9,8.7,30.17,NNW,333,0.0,-999.0,83,0.00,,,0.00,Wunderground v.1.15,2013-02-06 13:05:00,
2013-02-06 08:06:00,13.1,8.9,30.17,NNW,333,0.0,-999.0,83,0.00,,,0.00,Wunderground v.1.15,2013-02-06 13:06:00,
2013-02-06 08:08:00,13.1,8.9,30.17,NNW,333,0.0,-999.0,83,0.00,,,0.00,Wunderground v.1.15,2013-02-06 13:08:00,
2013-02-06 08:10:00,13.1,8.9,30.17,NNW,333,0.0,-999.0,83,0.00,,,0.00,Wunderground v.1.15,2013-02-06 13:10:00,
2013-02-06 08:12:00,13.1,8.9,30.17,NNW,333,0.0,-999.0,83,0.00,,,0.00,Wunderground v.1.15,2013-02-06 13:12:00,
2013-02-06 08:13:00,13.3,9.1,30.17,NNW,333,0.0,-999.0,83,0.00,,,0.00,Wunderground v.1.15,2013-02-06 13:13:00,
2013-02-06 08:14:00,13.3,9.1,30.17,NNW,333,0.0,-999.0,83,0.00,,,0.00,Wunderground v.1.15,2013-02-06 13:14:00,
2013-02-06 08:15:00,13.3,9.1,30.19,NNW,333,0.0,-999.0,83,0.00,,,0.00,Wunderground v.1.15,2013-02-06 13:15:00,
2013-02-06 08:17:00,13.3,9.1,30.19,NNW,333,0.0,-999.0,83,0.00,,,0.00,Wunderground v.1.15,2013-02-06 13:17:00,
2013-02-06 08:19:00,13.5,9.3,30.19,NNW,333,0.0,-999.0,83,0.00,,,0.00,Wunderground v.1.15,2013-02-06 13:19:00,
2013-02-06 08:20:00,13.5,9.3,30.19,NNW,333,0.0,-999.0,83,0.00,,,0.00,Wunderground v.1.15,2013-02-06 13:20:00,
2013-02-06 08:22:00,13.6,9.7,30.19,NNW,333,0.0,-999.0,84,0.00,,,0.00,Wunderground v.1.15,2013-02-06 13:22:00,
2013-02-06 08:24:00,13.8,9.9,30.19,NNW,333,0.0,-999.0,84,0.00,,,0.00,Wunderground v.1.15,2013-02-06 13:24:00,
2013-02-06 08:25:00,13.8,9.9,30.19,NNW,333,0.0,-999.0,84,0.00,,,0.00,Wunderground v.1.15,2013-02-06 13:25:00,
2013-02-06 08:26:00,14.0,10.1,30.19,NNW,333,0.0,-999.0,84,0.00,,,0.00,Wunderground v.1.15,2013-02-06 13:26:00,
2013-02-06 08:27:00,14.1,10.2,30.19,NNW,333,0.0,-999.0,84,0.00,,,0.00,Wunderground v.1.15,2013-02-06 13:27:00,
2013-02-06 08:30:00,14.3,10.4,30.19,NNW,333,0.0,-999.0,84,0.00,,,0.00,Wunderground v.1.15,2013-02-06 13:30:00,
2013-02-06 08:31:00,14.3,10.4,30.19,NNW,333,0.0,-999.0,84,0.00,,,0.00,Wunderground v.1.15,2013-02-06 13:31:00,
2013-02-06 08:32:00,14.4,10.4,30.19,NNW,333,0.0,-999.0,84,0.00,,,0.00,Wunderground v.1.15,2013-02-06 13:32:00,
2013-02-06 08:35:00,14.4,10.4,30.19,NNW,333,0.0,-999.0,84,0.00,,,0.00,Wunderground v.1.15,2013-02-06 13:35:00,
2013-02-06 08:36:00,14.4,10.4,30.19,NNW,333,0.0,-999.0,84,0.00,,,0.00,Wunderground v.1.15,2013-02-06 13:36:00,
2013-02-06 08:37:00,14.6,10.4,30.19,NNW,333,0.0,-999.0,83,0.00,,,0.00,Wunderground v.1.15,2013-02-06 13:37:00,
2013-02-06 08:40:00,14.8,10.8,30.19,NNW,333,0.0,-999.0,84,0.00,,,0.00,Wunderground v.1.15,2013-02-06 13:40:00,
2013-02-06 08:41:00,14.9,10.9,30.19,NNW,333,0.0,-999.0,84,0.00,,,0.00,Wunderground v.1.15,2013-02-06 13:41:00,
2013-02-06 08:42:00,15.1,11.1,30.19,NNW,333,0.0,-999.0,84,0.00,,,0.00,Wunderground v.1.15,2013-02-06 13:42:00,
2013-02-06 08:46:00,15.6,11.6,30.20,NNW,333,0.0,-999.0,84,0.00,,,0.00,Wunderground v.1.15,2013-02-06 13:46:00,
2013-02-06 08:47:00,15.6,11.6,30.20,NNW,333,0.0,-999.0,84,0.00,,,0.00,Wunderground v.1.15,2013-02-06 13:47:00,
2013-02-06 08:51:00,16.2,12.2,30.20,NNW,333,0.0,-999.0,84,0.00,,,0.00,Wunderground v.1.15,2013-02-06 13:51:00,
2013-02-06 08:52:00,16.2,12.2,30.20,NNW,333,0.0,-999.0,84,0.00,,,0.00,Wunderground v.1.15,2013-02-06 13:52:00,
2013-02-06 08:53:00,16.4,12.4,30.20,NNW,333,0.0,-999.0,84,0.00,,,0.00,Wunderground v.1.15,2013-02-06 13:53:00,
2013-02-06 08:56:00,16.9,12.9,30.20,NNW,333,0.0,-999.0,84,0.00,,,0.00,Wunderground v.1.15,2013-02-06 13:56:00,
2013-02-06 08:57:00,17.0,13.0,30.20,NNW,333,0.0,-999.0,84,0.00,,,0.00,Wunderground v.1.15,2013-02-06 13:57:00,
2013-02-06 08:58:00,17.0,13.0,30.20,NNW,333,0.0,-999.0,84,0.00,,,0.00,Wunderground v.1.15,2013-02-06 13:58:00,
2013-02-06 09:01:00,17.3,13.0,30.20,NNW,333,0.0,-999.0,83,0.00,,,0.00,Wunderground v.1.15,2013-02-06 14:01:00,
2013-02-06 09:02:00,17.8,13.5,30.20,NNW,333,0.0,-999.0,83,0.00,,,0.00,Wunderground v.1.15,2013-02-06 14:02:00,
2013-02-06 09:03:00,17.8,13.5,30.20,NNW,333,0.0,-999.0,83,0.00,,,0.00,Wunderground v.1.15,2013-02-06 14:03:00,
2013-02-06 09:07:00,18.3,14.0,30.20,NNW,333,0.0,-999.0,83,0.00,,,0.00,Wunderground v.1.15,2013-02-06 14:07:00,
2013-02-06 09:08:00,18.4,14.1,30.20,NNW,333,0.0,-999.0,83,0.00,,,0.00,Wunderground v.1.15,2013-02-06 14:08:00,
2013-02-06 09:12:00,19.2,14.9,30.20,NNW,333,0.0,-999.0,83,0.00,,,0.00,Wunderground v.1.15,2013-02-06 14:12:00,
2013-02-06 09:13:00,19.4,15.1,30.20,NNW,333,0.0,-999.0,83,0.00,,,0.00,Wunderground v.1.15,2013-02-06 14:13:00,
2013-02-06 09:14:00,19.4,15.1,30.20,NNW,333,0.0,-999.0,83,0.00,,,0.00,Wunderground v.1.15,2013-02-06 14:14:00,
2013-02-06 09:18:00,19.5,14.6,30.20,NNW,333,0.0,-999.0,81,0.00,,,0.00,Wunderground v.1.15,2013-02-06 14:18:00,
2013-02-06 09:19:00,19.7,14.8,30.20,NNW,333,0.0,-999.0,81,0.00,,,0.00,Wunderground v.1.15,2013-02-06 14:19:00,
2013-02-06 09:23:00,19.7,14.8,30.20,NNW,333,0.0,-999.0,81,0.00,,,0.00,Wunderground v.1.15,2013-02-06 14:23:00,
2013-02-06 09:24:00,19.9,15.0,30.20,NNW,333,0.0,-999.0,81,0.00,,,0.00,Wunderground v.1.15,2013-02-06 14:24:00,
2013-02-06 09:28:00,20.2,15.0,30.20,NNW,333,0.0,-999.0,80,0.00,,,0.00,Wunderground v.1.15,2013-02-06 14:28:00,
2013-02-06 09:29:00,20.2,14.7,30.20,NNW,333,0.0,-999.0,79,0.00,,,0.00,Wunderground v.1.15,2013-02-06 14:29:00,
2013-02-06 09:31:00,20.3,14.8,30.21,NNW,333,0.0,-999.0,79,0.00,,,0.00,Wunderground v.1.15,2013-02-06 14:31:00,
2013-02-06 09:33:00,20.5,14.7,30.21,NNW,333,0.0,-999.0,78,0.00,,,0.00,Wunderground v.1.15,2013-02-06 14:33:00,
2013-02-06 09:34:00,20.5,14.7,30.21,NNW,333,0.0,-999.0,78,0.00,,,0.00,Wunderground v.1.15,2013-02-06 14:34:00,
2013-02-06 09:36:00,20.6,14.5,30.21,NNW,333,0.0,-999.0,77,0.00,,,0.00,Wunderground v.1.15,2013-02-06 14:36:00,
2013-02-06 09:39:00,20.8,14.7,30.21,North,0,0.0,-999.0,77,0.00,,,0.00,Wunderground v.1.15,2013-02-06 14:39:00,
2013-02-06 09:41:00,20.8,14.4,30.21,North,357,1.0,-999.0,76,0.00,,,0.00,Wunderground v.1.15,2013-02-06 14:41:00,
2013-02-06 09:42:00,21.0,14.6,30.21,North,0,0.0,-999.0,76,0.00,,,0.00,Wunderground v.1.15,2013-02-06 14:42:00,
2013-02-06 09:44:00,21.1,14.4,30.21,North,357,0.0,-999.0,75,0.00,,,0.00,Wunderground v.1.15,2013-02-06 14:44:00,
2013-02-06 09:46:00,21.1,14.1,30.21,NW,311,0.0,-999.0,74,0.00,,,0.00,Wunderground v.1.15,2013-02-06 14:46:00,
2013-02-06 09:47:00,21.1,14.1,30.21,NW,326,0.0,-999.0,74,0.00,,,0.00,Wunderground v.1.15,2013-02-06 14:47:00,
2013-02-06 09:49:00,21.3,14.3,30.21,NW,326,2.0,-999.0,74,0.00,,,0.00,Wunderground v.1.15,2013-02-06 14:49:00,
2013-02-06 09:52:00,21.3,14.0,30.21,North,0,0.0,-999.0,73,0.00,,,0.00,Wunderground v.1.15,2013-02-06 14:52:00,
2013-02-06 09:53:00,21.3,14.0,30.21,North,0,0.0,-999.0,73,0.00,,,0.00,Wunderground v.1.15,2013-02-06 14:53:00,
2013-02-06 09:54:00,21.3,13.7,30.21,North,0,0.0,-999.0,72,0.00,,,0.00,Wunderground v.1.15,2013-02-06 14:54:00,
2013-02-06 09:57:00,21.3,13.7,30.21,NW,326,0.0,-999.0,72,0.00,,,0.00,Wunderground v.1.15,2013-02-06 14:57:00,
2013-02-06 09:58:00,21.3,13.7,30.21,NW,326,0.0,-999.0,72,0.00,,,0.00,Wunderground v.1.15,2013-02-06 14:58:00,
2013-02-06 10:00:00,21.4,13.5,30.21,NW,325,0.0,-999.0,71,0.00,,,0.00,Wunderground v.1.15,2013-02-06 15:00:00,
2013-02-06 10:03:00,21.6,13.6,30.22,NW,325,0.0,-999.0,71,0.00,,,0.00,Wunderground v.1.15,2013-02-06 15:03:00,
2013-02-06 10:05:00,21.8,13.8,30.22,NW,325,0.0,-999.0,71,0.00,,,0.00,Wunderground v.1.15,2013-02-06 15:05:00,
2013-02-06 10:06:00,21.8,13.8,30.22,NW,325,0.0,-999.0,71,0.00,,,0.00,Wunderground v.1.15,2013-02-06 15:06:00,
2013-02-06 10:08:00,21.9,13.6,30.22,NW,325,0.0,-999.0,70,0.00,,,0.00,Wunderground v.1.15,2013-02-06 15:08:00,
2013-02-06 10:09:00,21.9,13.6,30.22,NW,325,0.0,-999.0,70,0.00,,,0.00,Wunderground v.1.15,2013-02-06 15:09:00,
2013-02-06 10:11:00,22.2,13.6,30.22,NNE,13,0.0,-999.0,69,0.00,,,0.00,Wunderground v.1.15,2013-02-06 15:11:00,
2013-02-06 10:14:00,22.2,13.2,30.22,NNE,13,1.0,-999.0,68,0.00,,,0.00,Wunderground v.1.15,2013-02-06 15:14:00,
2013-02-06 10:16:00,22.4,13.1,30.22,NNE,13,0.0,-999.0,67,0.00,,,0.00,Wunderground v.1.15,2013-02-06 15:16:00,
2013-02-06 10:17:00,22.4,13.1,30.22,NNE,13,0.0,-999.0,67,0.00,,,0.00,Wunderground v.1.15,2013-02-06 15:17:00,
2013-02-06 10:19:00,22.5,13.2,30.22,NNE,13,0.0,-999.0,67,0.00,,,0.00,Wunderground v.1.15,2013-02-06 15:19:00,
2013-02-06 10:22:00,22.7,13.4,30.22,NNE,13,0.0,-999.0,67,0.00,,,0.00,Wunderground v.1.15,2013-02-06 15:22:00,
2013-02-06 10:23:00,22.7,13.0,30.22,NNE,13,0.0,-999.0,66,0.00,,,0.00,Wunderground v.1.15,2013-02-06 15:23:00,
2013-02-06 10:24:00,22.7,13.0,30.22,NNE,13,0.0,-999.0,66,0.00,,,0.00,Wunderground v.1.15,2013-02-06 15:24:00,
2013-02-06 10:25:00,22.9,13.2,30.22,NNE,13,1.0,-999.0,66,0.00,,,0.00,Wunderground v.1.15,2013-02-06 15:25:00,
2013-02-06 10:27:00,22.9,13.2,30.22,NNE,13,0.0,-999.0,66,0.00,,,0.00,Wunderground v.1.15,2013-02-06 15:27:00,
2013-02-06 10:28:00,23.0,13.0,30.22,NNE,13,0.0,-999.0,65,0.00,,,0.00,Wunderground v.1.15,2013-02-06 15:28:00,
2013-02-06 10:30:00,23.2,13.2,30.22,NNE,13,0.0,-999.0,65,0.00,,,0.00,Wunderground v.1.15,2013-02-06 15:30:00,
2013-02-06 10:32:00,23.3,12.9,30.22,NNW,336,1.0,-999.0,64,0.00,,,0.00,Wunderground v.1.15,2013-02-06 15:32:00,
2013-02-06 10:33:00,23.3,12.9,30.22,NNW,336,0.0,-999.0,64,0.00,,,0.00,Wunderground v.1.15,2013-02-06 15:33:00,
2013-02-06 10:35:00,23.5,13.1,30.22,NNW,336,0.0,-999.0,64,0.00,,,0.00,Wunderground v.1.15,2013-02-06 15:35:00,
2013-02-06 10:36:00,23.5,13.1,30.22,NNW,336,0.0,-999.0,64,0.00,,,0.00,Wunderground v.1.15,2013-02-06 15:36:00,
2013-02-06 10:37:00,23.6,12.8,30.22,NNW,336,0.0,-999.0,63,0.00,,,0.00,Wunderground v.1.15,2013-02-06 15:37:00,
2013-02-06 10:38:00,23.6,12.8,30.22,NNW,336,0.0,-999.0,63,0.00,,,0.00,Wunderground v.1.15,2013-02-06 15:38:00,
2013-02-06 10:40:00,23.8,13.0,30.22,NNW,336,1.0,-999.0,63,0.00,,,0.00,Wunderground v.1.15,2013-02-06 15:40:00,
2013-02-06 10:41:00,23.8,13.0,30.22,NNW,336,0.0,-999.0,63,0.00,,,0.00,Wunderground v.1.15,2013-02-06 15:41:00,
2013-02-06 10:43:00,23.8,13.0,30.22,NNW,336,0.0,-999.0,63,0.00,,,0.00,Wunderground v.1.15,2013-02-06 15:43:00,
2013-02-06 10:45:00,23.8,13.0,30.23,NNW,336,0.0,-999.0,63,0.00,,,0.00,Wunderground v.1.15,2013-02-06 15:45:00,
2013-02-06 10:47:00,23.8,13.0,30.23,NNW,336,0.0,-999.0,63,0.00,,,0.00,Wunderground v.1.15,2013-02-06 15:47:00,
2013-02-06 10:48:00,23.8,13.0,30.23,NNW,336,0.0,-999.0,63,0.00,,,0.00,Wunderground v.1.15,2013-02-06 15:48:00,
2013-02-06 10:49:00,23.8,13.0,30.23,NNW,336,0.0,-999.0,63,0.00,,,0.00,Wunderground v.1.15,2013-02-06 15:49:00,
2013-02-06 10:50:00,23.8,13.0,30.23,NNW,336,1.0,-999.0,63,0.00,,,0.00,Wunderground v.1.15,2013-02-06 15:50:00,
2013-02-06 10:52:00,23.8,12.3,30.23,SSW,200,0.0,-999.0,61,0.00,,,0.00,Wunderground v.1.15,2013-02-06 15:52:00,
2013-02-06 10:53:00,23.8,12.3,30.23,SSW,200,0.0,-999.0,61,0.00,,,0.00,Wunderground v.1.15,2013-02-06 15:53:00,
2013-02-06 10:54:00,23.8,12.3,30.23,SSW,200,0.0,-999.0,61,0.00,,,0.00,Wunderground v.1.15,2013-02-06 15:54:00,
2013-02-06 10:55:00,23.9,12.4,30.23,SSW,200,0.0,-999.0,61,0.00,,,0.00,Wunderground v.1.15,2013-02-06 15:55:00,
2013-02-06 10:58:00,23.9,12.4,30.23,SSW,200,0.0,-999.0,61,0.00,,,0.00,Wunderground v.1.15,2013-02-06 15:58:00,
2013-02-06 10:59:00,24.1,12.6,30.23,WNW,296,1.0,-999.0,61,0.00,,,0.00,Wunderground v.1.15,2013-02-06 15:59:00,
2013-02-06 11:00:00,24.1,12.6,30.23,WNW,296,1.0,-999.0,61,0.00,,,0.00,Wunderground v.1.15,2013-02-06 16:00:00,
2013-02-06 11:03:00,24.1,12.6,30.23,WNW,302,0.0,-999.0,61,0.00,,,0.00,Wunderground v.1.15,2013-02-06 16:03:00,
2013-02-06 11:04:00,23.9,12.0,30.23,North,0,0.0,-999.0,60,0.00,,,0.00,Wunderground v.1.15,2013-02-06 16:04:00,
2013-02-06 11:06:00,23.9,12.0,30.23,North,0,0.0,-999.0,60,0.00,,,0.00,Wunderground v.1.15,2013-02-06 16:06:00,
2013-02-06 11:09:00,24.1,12.2,30.23,SSW,205,2.0,-999.0,60,0.00,,,0.00,Wunderground v.1.15,2013-02-06 16:09:00,
2013-02-06 11:10:00,24.1,12.2,30.23,SSW,196,2.0,-999.0,60,0.00,,,0.00,Wunderground v.1.15,2013-02-06 16:10:00,
2013-02-06 11:11:00,24.2,12.3,30.23,SSW,196,0.0,-999.0,60,0.00,,,0.00,Wunderground v.1.15,2013-02-06 16:11:00,
2013-02-06 11:14:00,24.4,12.5,30.23,SSW,196,0.0,-999.0,60,0.00,,,0.00,Wunderground v.1.15,2013-02-06 16:14:00,
2013-02-06 11:15:00,24.4,12.5,30.23,SSW,196,0.0,-999.0,60,0.00,,,0.00,Wunderground v.1.15,2013-02-06 16:15:00,
2013-02-06 11:16:00,24.4,12.5,30.22,SSW,196,0.0,-999.0,60,0.00,,,0.00,Wunderground v.1.15,2013-02-06 16:16:00,
2013-02-06 11:19:00,24.7,12.8,30.22,SSW,196,1.0,-999.0,60,0.00,,,0.00,Wunderground v.1.15,2013-02-06 16:19:00,
2013-02-06 11:20:00,24.7,12.8,30.22,SSW,196,1.0,-999.0,60,0.00,,,0.00,Wunderground v.1.15,2013-02-06 16:20:00,
2013-02-06 11:21:00,24.8,12.9,30.22,SSW,203,1.0,-999.0,60,0.00,,,0.00,Wunderground v.1.15,2013-02-06 16:21:00,
2013-02-06 11:25:00,25.0,12.7,30.22,South,188,1.0,-999.0,59,0.00,,,0.00,Wunderground v.1.15,2013-02-06 16:25:00,
2013-02-06 11:26:00,25.0,12.3,30.22,WSW,239,0.0,-999.0,58,0.00,,,0.00,Wunderground v.1.15,2013-02-06 16:26:00,
2013-02-06 11:30:00,25.1,12.4,30.22,SSW,205,0.0,-999.0,58,0.00,,,0.00,Wunderground v.1.15,2013-02-06 16:30:00,
2013-02-06 11:31:00,25.3,12.6,30.22,SSW,205,0.0,-999.0,58,0.00,,,0.00,Wunderground v.1.15,2013-02-06 16:31:00,
2013-02-06 11:32:00,25.4,12.7,30.22,SE,127,1.0,-999.0,58,0.00,,,0.00,Wunderground v.1.15,2013-02-06 16:32:00,
2013-02-06 11:35:00,25.6,12.9,30.22,WSW,241,0.0,-999.0,58,0.00,,,0.00,Wunderground v.1.15,2013-02-06 16:35:00,
2013-02-06 11:36:00,25.6,12.9,30.22,WSW,241,0.0,-999.0,58,0.00,,,0.00,Wunderground v.1.15,2013-02-06 16:36:00,
2013-02-06 11:38:00,25.6,12.9,30.22,West,260,1.0,-999.0,58,0.00,,,0.00,Wunderground v.1.15,2013-02-06 16:38:00,
2013-02-06 11:40:00,25.8,12.6,30.22,WSW,258,0.0,-999.0,57,0.00,,,0.00,Wunderground v.1.15,2013-02-06 16:40:00,
2013-02-06 11:41:00,25.8,12.6,30.22,NW,309,1.0,-999.0,57,0.00,,,0.00,Wunderground v.1.15,2013-02-06 16:41:00,
2013-02-06 11:42:00,25.8,12.6,30.22,NW,309,0.0,-999.0,57,0.00,,,0.00,Wunderground v.1.15,2013-02-06 16:42:00,
2013-02-06 11:43:00,26.0,12.8,30.22,WNW,301,1.0,-999.0,57,0.00,,,0.00,Wunderground v.1.15,2013-02-06 16:43:00,
2013-02-06 11:45:00,26.0,12.8,30.23,West,281,0.0,-999.0,57,0.00,,,0.00,Wunderground v.1.15,2013-02-06 16:45:00,
2013-02-06 11:47:00,26.0,12.4,30.23,SSW,210,1.0,-999.0,56,0.00,,,0.00,Wunderground v.1.15,2013-02-06 16:47:00,
2013-02-06 11:48:00,26.0,12.4,30.23,SSW,208,0.0,-999.0,56,0.00,,,0.00,Wunderground v.1.15,2013-02-06 16:48:00,
2013-02-06 11:51:00,26.1,12.9,30.23,WSW,254,1.0,-999.0,57,0.00,,,0.00,Wunderground v.1.15,2013-02-06 16:51:00,
2013-02-06 11:52:00,26.1,12.5,30.23,WSW,254,0.0,-999.0,56,0.00,,,0.00,Wunderground v.1.15,2013-02-06 16:52:00,
2013-02-06 11:53:00,26.1,12.5,30.23,NW,304,3.0,-999.0,56,0.00,,,0.00,Wunderground v.1.15,2013-02-06 16:53:00,
2013-02-06 11:54:00,26.3,12.7,30.23,NW,304,0.0,-999.0,56,0.00,,,0.00,Wunderground v.1.15,2013-02-06 16:54:00,
2013-02-06 11:57:00,26.4,12.8,30.23,NW,306,1.0,-999.0,56,0.00,,,0.00,Wunderground v.1.15,2013-02-06 16:57:00,
2013-02-06 11:58:00,26.4,12.8,30.23,SSW,193,3.0,-999.0,56,0.00,,,0.00,Wunderground v.1.15,2013-02-06 16:58:00,
2013-02-06 11:59:00,26.4,13.2,30.23,SSW,203,0.0,-999.0,57,0.00,,,0.00,Wunderground v.1.15,2013-02-06 16:59:00,
2013-02-06 12:02:00,26.6,13.4,30.22,South,189,2.0,-999.0,57,0.00,,,0.00,Wunderground v.1.15,2013-02-06 17:02:00,
2013-02-06 12:03:00,26.6,13.4,30.22,SSW,209,0.0,-999.0,57,0.00,,,0.00,Wunderground v.1.15,2013-02-06 17:03:00,
2013-02-06 12:04:00,26.6,13.4,30.22,SSW,209,0.0,-999.0,57,0.00,,,0.00,Wunderground v.1.15,2013-02-06 17:04:00,
2013-02-06 12:07:00,26.7,13.1,30.22,SW,233,2.0,-999.0,56,0.00,,,0.00,Wunderground v.1.15,2013-02-06 17:07:00,
2013-02-06 12:08:00,26.7,13.1,30.22,South,174,0.0,-999.0,56,0.00,,,0.00,Wunderground v.1.15,2013-02-06 17:08:00,
2013-02-06 12:10:00,26.7,13.1,30.22,South,182,0.0,-999.0,56,0.00,,,0.00,Wunderground v.1.15,2013-02-06 17:10:00,
2013-02-06 12:13:00,27.0,13.0,30.22,SSW,199,0.0,-999.0,55,0.00,,,0.00,Wunderground v.1.15,2013-02-06 17:13:00,
2013-02-06 12:15:00,27.2,13.1,30.22,SSW,199,0.0,-999.0,55,0.00,,,0.00,Wunderground v.1.15,2013-02-06 17:15:00,
2013-02-06 12:18:00,27.6,13.5,30.22,West,278,0.0,-999.0,55,0.00,,,0.00,Wunderground v.1.15,2013-02-06 17:18:00,
2013-02-06 12:19:00,27.6,13.5,30.22,West,278,0.0,-999.0,55,0.00,,,0.00,Wunderground v.1.15,2013-02-06 17:19:00,
2013-02-06 12:20:00,27.8,13.7,30.22,SSW,198,1.0,-999.0,55,0.00,,,0.00,Wunderground v.1.15,2013-02-06 17:20:00,
2013-02-06 12:21:00,27.8,13.7,30.22,South,176,1.0,-999.0,55,0.00,,,0.00,Wunderground v.1.15,2013-02-06 17:21:00,
2013-02-06 12:24:00,27.9,13.4,30.22,SW,219,0.0,-999.0,54,0.00,,,0.00,Wunderground v.1.15,2013-02-06 17:24:00,
2013-02-06 12:25:00,27.9,13.4,30.22,SSW,192,3.0,-999.0,54,0.00,,,0.00,Wunderground v.1.15,2013-02-06 17:25:00,
2013-02-06 12:26:00,27.9,13.4,30.22,South,178,2.0,-999.0,54,0.00,,,0.00,Wunderground v.1.15,2013-02-06 17:26:00,
2013-02-06 12:29:00,27.8,12.9,30.22,SSW,200,6.0,-999.0,53,0.00,,,0.00,Wunderground v.1.15,2013-02-06 17:29:00,
2013-02-06 12:30:00,27.8,12.9,30.22,South,175,5.0,-999.0,53,0.00,,,0.00,Wunderground v.1.15,2013-02-06 17:30:00,
2013-02-06 12:31:00,27.8,12.9,30.22,SSW,203,2.0,-999.0,53,0.00,,,0.00,Wunderground v.1.15,2013-02-06 17:31:00,
2013-02-06 12:34:00,27.9,13.4,30.22,South,181,1.0,-999.0,54,0.00,,,0.00,Wunderground v.1.15,2013-02-06 17:34:00,
2013-02-06 12:36:00,27.9,13.0,30.22,South,186,2.0,-999.0,53,0.00,,,0.00,Wunderground v.1.15,2013-02-06 17:36:00,
2013-02-06 12:40:00,28.1,13.1,30.22,West,275,2.0,-999.0,53,0.00,,,0.00,Wunderground v.1.15,2013-02-06 17:40:00,
2013-02-06 12:41:00,28.2,13.2,30.22,South,184,2.0,-999.0,53,0.00,,,0.00,Wunderground v.1.15,2013-02-06 17:41:00,
2013-02-06 12:45:00,28.5,13.5,30.22,SSW,200,0.0,-999.0,53,0.00,,,0.00,Wunderground v.1.15,2013-02-06 17:45:00,
2013-02-06 12:46:00,28.7,13.7,30.22,WNW,291,1.0,-999.0,53,0.00,,,0.00,Wunderground v.1.15,2013-02-06 17:46:00,
2013-02-06 12:47:00,28.7,13.3,30.22,WNW,291,1.0,-999.0,52,0.00,,,0.00,Wunderground v.1.15,2013-02-06 17:47:00,
2013-02-06 12:50:00,29.0,13.6,30.22,WNW,291,0.0,-999.0,52,0.00,,,0.00,Wunderground v.1.15,2013-02-06 17:50:00,
2013-02-06 12:52:00,29.3,13.8,30.22,WNW,291,0.0,-999.0,52,0.00,,,0.00,Wunderground v.1.15,2013-02-06 17:52:00,
2013-02-06 12:56:00,29.5,14.0,30.22,WSW,254,0.0,-999.0,52,0.00,,,0.00,Wunderground v.1.15,2013-02-06 17:56:00,
2013-02-06 12:57:00,29.5,13.6,30.22,SW,227,3.0,-999.0,51,0.00,,,0.00,Wunderground v.1.15,2013-02-06 17:57:00,
2013-02-06 12:58:00,29.5,13.1,30.22,SW,219,0.0,-999.0,50,0.00,,,0.00,Wunderground v.1.15,2013-02-06 17:58:00,
2013-02-06 13:01:00,29.7,13.8,30.21,SW,219,0.0,-999.0,51,0.00,,,0.00,Wunderground v.1.15,2013-02-06 18:01:00,
2013-02-06 13:02:00,29.8,13.9,30.21,WSW,246,3.0,-999.0,51,0.00,,,0.00,Wunderground v.1.15,2013-02-06 18:02:00,
2013-02-06 13:03:00,29.8,13.9,30.21,WSW,256,0.0,-999.0,51,0.00,,,0.00,Wunderground v.1.15,2013-02-06 18:03:00,
2013-02-06 13:07:00,30.0,14.0,30.21,SW,236,0.0,-999.0,51,0.00,,,0.01,Wunderground v.1.15,2013-02-06 18:07:00,
2013-02-06 13:08:00,30.0,14.0,30.21,SW,234,0.0,-999.0,51,0.00,,,0.01,Wunderground v.1.15,2013-02-06 18:08:00,
2013-02-06 13:09:00,30.1,14.1,30.21,SW,230,0.0,-999.0,51,0.00,,,0.01,Wunderground v.1.15,2013-02-06 18:09:00,
2013-02-06 13:12:00,30.6,14.1,30.21,SW,232,0.0,-999.0,50,0.00,,,0.01,Wunderground v.1.15,2013-02-06 18:12:00,
2013-02-06 13:13:00,30.6,14.1,30.21,SW,232,0.0,-999.0,50,0.00,,,0.01,Wunderground v.1.15,2013-02-06 18:13:00,
2013-02-06 13:14:00,30.7,14.2,30.21,WSW,239,0.0,-999.0,50,0.00,,,0.01,Wunderground v.1.15,2013-02-06 18:14:00,
2013-02-06 13:17:00,30.9,13.5,30.22,SW,227,0.0,-999.0,48,0.00,,,0.01,Wunderground v.1.15,2013-02-06 18:17:00,
2013-02-06 13:18:00,31.2,14.7,30.22,SW,227,0.0,-999.0,50,0.00,,,0.01,Wunderground v.1.15,2013-02-06 18:18:00,
2013-02-06 13:19:00,31.2,14.7,30.22,SSW,212,1.0,-999.0,50,0.00,,,0.01,Wunderground v.1.15,2013-02-06 18:19:00,
2013-02-06 13:22:00,30.7,13.3,30.22,South,186,0.0,-999.0,48,0.00,,,0.01,Wunderground v.1.15,2013-02-06 18:22:00,
2013-02-06 13:23:00,30.7,13.8,30.22,SSW,210,1.0,-999.0,49,0.00,,,0.01,Wunderground v.1.15,2013-02-06 18:23:00,
2013-02-06 13:24:00,30.6,13.7,30.22,SSW,210,0.0,-999.0,49,0.00,,,0.01,Wunderground v.1.15,2013-02-06 18:24:00,
2013-02-06 13:27:00,30.6,13.7,30.22,SSW,202,0.0,-999.0,49,0.00,,,0.01,Wunderground v.1.15,2013-02-06 18:27:00,
2013-02-06 13:29:00,30.7,13.8,30.22,NW,309,3.0,-999.0,49,0.00,,,0.01,Wunderground v.1.15,2013-02-06 18:29:00,
2013-02-06 13:30:00,30.7,13.8,30.22,NW,309,0.0,-999.0,49,0.00,,,0.01,Wunderground v.1.15,2013-02-06 18:30:00,
2013-02-06 13:33:00,30.7,13.8,30.23,NW,311,0.0,-999.0,49,0.00,,,0.01,Wunderground v.1.15,2013-02-06 18:33:00,
2013-02-06 13:34:00,30.7,13.8,30.23,WNW,299,6.0,-999.0,49,0.00,,,0.01,Wunderground v.1.15,2013-02-06 18:34:00,
2013-02-06 13:35:00,30.7,13.8,30.23,NW,311,2.0,-999.0,49,0.00,,,0.01,Wunderground v.1.15,2013-02-06 18:35:00,
2013-02-06 13:38:00,30.6,14.1,30.23,NW,308,2.0,-999.0,50,0.00,,,0.01,Wunderground v.1.15,2013-02-06 18:38:00,
2013-02-06 13:39:00,30.6,14.1,30.23,SSW,202,2.0,-999.0,50,0.00,,,0.01,Wunderground v.1.15,2013-02-06 18:39:00,
2013-02-06 13:40:00,30.6,14.1,30.23,SSW,202,0.0,-999.0,50,0.00,,,0.01,Wunderground v.1.15,2013-02-06 18:40:00,
2013-02-06 13:43:00,30.9,14.4,30.23,SSW,206,0.0,-999.0,50,0.00,,,0.01,Wunderground v.1.15,2013-02-06 18:43:00,
2013-02-06 13:44:00,30.9,14.0,30.23,West,268,0.0,-999.0,49,0.00,,,0.01,Wunderground v.1.15,2013-02-06 18:44:00,
2013-02-06 13:45:00,31.0,14.0,30.22,SSW,203,0.0,-999.0,49,0.00,,,0.01,Wunderground v.1.15,2013-02-06 18:45:00,
2013-02-06 13:49:00,31.0,14.0,30.22,SSW,199,1.0,-999.0,49,0.00,,,0.01,Wunderground v.1.15,2013-02-06 18:49:00,
2013-02-06 13:50:00,30.9,14.0,30.22,South,172,4.0,-999.0,49,0.00,,,0.02,Wunderground v.1.15,2013-02-06 18:50:00,
2013-02-06 13:51:00,30.7,13.8,30.22,SSW,206,0.0,-999.0,49,0.00,,,0.02,Wunderground v.1.15,2013-02-06 18:51:00,
2013-02-06 13:52:00,30.6,13.7,30.22,South,186,1.0,-999.0,49,0.00,,,0.02,Wunderground v.1.15,2013-02-06 18:52:00,
2013-02-06 13:54:00,30.6,13.2,30.22,SW,222,3.0,-999.0,48,0.00,,,0.02,Wunderground v.1.15,2013-02-06 18:54:00,
2013-02-06 13:55:00,30.6,13.2,30.22,WSW,248,0.0,-999.0,48,0.00,,,0.02,Wunderground v.1.15,2013-02-06 18:55:00,
2013-02-06 13:56:00,30.6,13.7,30.22,SW,236,0.0,-999.0,49,0.00,,,0.02,Wunderground v.1.15,2013-02-06 18:56:00,
2013-02-06 13:57:00,30.6,13.7,30.22,SSW,198,0.0,-999.0,49,0.00,,,0.02,Wunderground v.1.15,2013-02-06 18:57:00,
2013-02-06 14:00:00,30.9,14.0,30.22,SSW,196,0.0,-999.0,49,0.00,,,0.02,Wunderground v.1.15,2013-02-06 19:00:00,
2013-02-06 14:01:00,31.0,14.0,30.21,WNW,287,1.0,-999.0,49,0.00,,,0.02,Wunderground v.1.15,2013-02-06 19:01:00,
2013-02-06 14:02:00,31.0,14.0,30.21,WNW,287,0.0,-999.0,49,0.00,,,0.02,Wunderground v.1.15,2013-02-06 19:02:00,
2013-02-06 14:05:00,31.5,14.5,30.21,WNW,287,0.0,-999.0,49,0.00,,,0.02,Wunderground v.1.15,2013-02-06 19:05:00,
2013-02-06 14:06:00,31.6,14.1,30.21,WNW,287,0.0,-999.0,48,0.00,,,0.02,Wunderground v.1.15,2013-02-06 19:06:00,
2013-02-06 14:08:00,31.8,14.3,30.21,SW,229,0.0,-999.0,48,0.00,,,0.02,Wunderground v.1.15,2013-02-06 19:08:00,
2013-02-06 14:10:00,31.9,14.4,30.21,SSW,210,0.0,-999.0,48,0.00,,,0.02,Wunderground v.1.15,2013-02-06 19:10:00,
2013-02-06 14:11:00,32.1,14.6,30.21,SSW,210,1.0,-999.0,48,0.00,,,0.02,Wunderground v.1.15,2013-02-06 19:11:00,
2013-02-06 14:12:00,32.1,14.6,30.21,SSW,210,0.0,-999.0,48,0.00,,,0.02,Wunderground v.1.15,2013-02-06 19:12:00,
2013-02-06 14:13:00,32.1,14.6,30.21,SSW,210,0.0,-999.0,48,0.00,,,0.02,Wunderground v.1.15,2013-02-06 19:13:00,
2013-02-06 14:16:00,31.9,13.4,30.21,SSW,210,0.0,-999.0,46,0.00,,,0.02,Wunderground v.1.15,2013-02-06 19:16:00,
2013-02-06 14:17:00,32.1,13.6,30.21,NW,313,0.0,-999.0,46,0.00,,,0.02,Wunderground v.1.15,2013-02-06 19:17:00,
2013-02-06 14:18:00,32.1,14.1,30.21,SSW,203,0.0,-999.0,47,0.00,,,0.02,Wunderground v.1.15,2013-02-06 19:18:00,
2013-02-06 14:21:00,32.2,13.7,30.21,SSW,196,0.0,-999.0,46,0.00,,,0.02,Wunderground v.1.15,2013-02-06 19:21:00,
2013-02-06 14:23:00,32.2,14.2,30.21,West,281,0.0,-999.0,47,0.00,,,0.02,Wunderground v.1.15,2013-02-06 19:23:00,
2013-02-06 14:26:00,32.2,13.7,30.21,WNW,298,1.0,-999.0,46,0.00,,,0.02,Wunderground v.1.15,2013-02-06 19:26:00,
2013-02-06 14:28:00,32.1,13.6,30.21,West,280,0.0,-999.0,46,0.00,,,0.02,Wunderground v.1.15,2013-02-06 19:28:00,
2013-02-06 14:31:00,31.8,13.8,30.21,NW,313,1.0,-999.0,47,0.00,,,0.02,Wunderground v.1.15,2013-02-06 19:31:00,
2013-02-06 14:33:00,31.8,13.8,30.21,SSW,199,2.0,-999.0,47,0.00,,,0.02,Wunderground v.1.15,2013-02-06 19:33:00,
2013-02-06 14:34:00,31.8,13.8,30.21,SSW,199,2.0,-999.0,47,0.00,,,0.02,Wunderground v.1.15,2013-02-06 19:34:00,
2013-02-06 14:37:00,31.6,13.2,30.21,SSW,199,0.0,-999.0,46,0.00,,,0.02,Wunderground v.1.15,2013-02-06 19:37:00,
2013-02-06 14:39:00,31.8,13.3,30.21,SSW,199,0.0,-999.0,46,0.00,,,0.02,Wunderground v.1.15,2013-02-06 19:39:00,
2013-02-06 14:42:00,31.9,13.4,30.21,NW,315,0.0,-999.0,46,0.00,,,0.02,Wunderground v.1.15,2013-02-06 19:42:00,
2013-02-06 14:43:00,31.9,13.4,30.21,NW,315,0.0,-999.0,46,0.00,,,0.02,Wunderground v.1.15,2013-02-06 19:43:00,
2013-02-06 14:44:00,31.9,13.4,30.21,SE,127,2.0,-999.0,46,0.00,,,0.02,Wunderground v.1.15,2013-02-06 19:44:00,
2013-02-06 14:45:00,31.9,13.4,30.21,West,263,0.0,-999.0,46,0.00,,,0.02,Wunderground v.1.15,2013-02-06 19:45:00,
2013-02-06 14:48:00,31.9,13.4,30.21,WNW,301,0.0,-999.0,46,0.00,,,0.03,Wunderground v.1.15,2013-02-06 19:48:00,
2013-02-06 14:50:00,31.9,12.9,30.21,SSW,198,0.0,-999.0,45,0.00,,,0.03,Wunderground v.1.15,2013-02-06 19:50:00,
2013-02-06 14:53:00,31.5,13.1,30.21,SSW,199,2.0,-999.0,46,0.00,,,0.03,Wunderground v.1.15,2013-02-06 19:53:00,
2013-02-06 14:56:00,31.2,13.3,30.21,SSW,196,0.0,-999.0,47,0.00,,,0.03,Wunderground v.1.15,2013-02-06 19:56:00,
2013-02-06 14:58:00,31.3,12.9,30.21,SSW,196,0.0,-999.0,46,0.00,,,0.03,Wunderground v.1.15,2013-02-06 19:58:00,
2013-02-06 15:01:00,31.5,13.1,30.20,SSW,196,0.0,-999.0,46,0.00,,,0.03,Wunderground v.1.15,2013-02-06 20:01:00,
2013-02-06 15:02:00,31.5,13.1,30.20,SSW,196,0.0,-999.0,46,0.00,,,0.03,Wunderground v.1.15,2013-02-06 20:02:00,
2013-02-06 15:03:00,31.5,13.1,30.20,SSW,196,0.0,-999.0,46,0.00,,,0.03,Wunderground v.1.15,2013-02-06 20:03:00,
2013-02-06 15:06:00,31.5,13.1,30.20,SSW,196,0.0,-999.0,46,0.00,,,0.03,Wunderground v.1.15,2013-02-06 20:06:00,
2013-02-06 15:07:00,31.5,14.0,30.20,SSW,196,0.0,-999.0,48,0.00,,,0.03,Wunderground v.1.15,2013-02-06 20:07:00,
2013-02-06 15:09:00,31.6,13.7,30.20,ENE,78,0.0,-999.0,47,0.00,,,0.03,Wunderground v.1.15,2013-02-06 20:09:00,
2013-02-06 15:11:00,31.6,13.2,30.20,ENE,75,0.0,-999.0,46,0.00,,,0.03,Wunderground v.1.15,2013-02-06 20:11:00,
2013-02-06 15:13:00,31.9,13.9,30.20,South,174,1.0,-999.0,47,0.00,,,0.03,Wunderground v.1.15,2013-02-06 20:13:00,
2013-02-06 15:14:00,32.1,13.6,30.20,SSW,198,2.0,-999.0,46,0.00,,,0.03,Wunderground v.1.15,2013-02-06 20:14:00,
2013-02-06 15:16:00,32.2,13.7,30.21,SW,232,0.0,-999.0,46,0.00,,,0.03,Wunderground v.1.15,2013-02-06 20:16:00,
2013-02-06 15:17:00,32.2,14.7,30.21,SW,232,0.0,-999.0,48,0.00,,,0.03,Wunderground v.1.15,2013-02-06 20:17:00,
2013-02-06 15:19:00,32.5,15.0,30.21,SW,232,0.0,-999.0,48,0.00,,,0.03,Wunderground v.1.15,2013-02-06 20:19:00,
2013-02-06 15:20:00,32.5,15.0,30.21,SW,232,0.0,-999.0,48,0.00,,,0.03,Wunderground v.1.15,2013-02-06 20:20:00,
2013-02-06 15:22:00,32.5,14.5,30.21,SSW,203,0.0,-999.0,47,0.00,,,0.03,Wunderground v.1.15,2013-02-06 20:22:00,
2013-02-06 15:24:00,32.2,14.2,30.21,SSW,203,3.0,-999.0,47,0.00,,,0.03,Wunderground v.1.15,2013-02-06 20:24:00,
2013-02-06 15:25:00,31.9,13.9,30.21,South,181,2.0,-999.0,47,0.00,,,0.03,Wunderground v.1.15,2013-02-06 20:25:00,
2013-02-06 15:27:00,31.6,13.2,30.21,SSW,192,2.0,-999.0,46,0.00,,,0.03,Wunderground v.1.15,2013-02-06 20:27:00,
2013-02-06 15:28:00,31.6,13.2,30.21,SSW,205,6.0,-999.0,46,0.00,,,0.03,Wunderground v.1.15,2013-02-06 20:28:00,
2013-02-06 15:30:00,31.5,13.1,30.21,South,181,2.0,-999.0,46,0.00,,,0.03,Wunderground v.1.15,2013-02-06 20:30:00,
2013-02-06 15:32:00,31.3,12.9,30.21,South,181,1.0,-999.0,46,0.00,,,0.03,Wunderground v.1.15,2013-02-06 20:32:00,
2013-02-06 15:33:00,31.3,13.4,30.21,South,181,0.0,-999.0,47,0.00,,,0.03,Wunderground v.1.15,2013-02-06 20:33:00,
2013-02-06 15:36:00,31.6,13.2,30.21,WSW,240,0.0,-999.0,46,0.00,,,0.03,Wunderground v.1.15,2013-02-06 20:36:00,
2013-02-06 15:37:00,31.8,13.3,30.21,South,182,6.0,-999.0,46,0.00,,,0.03,Wunderground v.1.15,2013-02-06 20:37:00,
2013-02-06 15:38:00,31.5,13.1,30.21,South,179,0.0,-999.0,46,0.00,,,0.03,Wunderground v.1.15,2013-02-06 20:38:00,
2013-02-06 15:42:00,31.3,12.9,30.21,SE,124,0.0,-999.0,46,0.00,,,0.03,Wunderground v.1.15,2013-02-06 20:42:00,
2013-02-06 15:43:00,31.2,12.8,30.21,SE,124,0.0,-999.0,46,0.00,,,0.03,Wunderground v.1.15,2013-02-06 20:43:00,
2013-02-06 15:47:00,31.2,12.8,30.21,East,93,0.0,-999.0,46,0.00,,,0.03,Wunderground v.1.15,2013-02-06 20:47:00,
2013-02-06 15:48:00,31.2,12.8,30.21,ESE,102,1.0,-999.0,46,0.00,,,0.03,Wunderground v.1.15,2013-02-06 20:48:00,
2013-02-06 15:49:00,31.3,12.9,30.21,ESE,117,1.0,-999.0,46,0.00,,,0.03,Wunderground v.1.15,2013-02-06 20:49:00,
2013-02-06 15:53:00,31.2,14.7,30.21,East,79,0.0,-999.0,50,0.00,,,0.03,Wunderground v.1.15,2013-02-06 20:53:00,
2013-02-06 15:56:00,31.0,15.4,30.21,East,79,0.0,-999.0,52,0.00,,,0.03,Wunderground v.1.15,2013-02-06 20:56:00,
2013-02-06 15:58:00,30.7,15.1,30.21,ESE,110,0.0,-999.0,52,0.00,,,0.03,Wunderground v.1.15,2013-02-06 20:58:00,
2013-02-06 16:01:00,30.7,15.6,30.20,East,99,0.0,-999.0,53,0.00,,,0.03,Wunderground v.1.15,2013-02-06 21:01:00,
2013-02-06 16:03:00,30.6,15.9,30.20,ESE,106,0.0,-999.0,54,0.00,,,0.03,Wunderground v.1.15,2013-02-06 21:03:00,
2013-02-06 16:04:00,30.4,15.7,30.20,ESE,106,0.0,-999.0,54,0.00,,,0.03,Wunderground v.1.15,2013-02-06 21:04:00,
2013-02-06 16:06:00,30.4,16.1,30.20,East,96,0.0,-999.0,55,0.00,,,0.03,Wunderground v.1.15,2013-02-06 21:06:00,
2013-02-06 16:08:00,30.4,15.7,30.20,East,89,2.0,-999.0,54,0.00,,,0.03,Wunderground v.1.15,2013-02-06 21:08:00,
2013-02-06 16:09:00,30.3,15.6,30.20,ESE,102,0.0,-999.0,54,0.00,,,0.03,Wunderground v.1.15,2013-02-06 21:09:00,
2013-02-06 16:12:00,30.0,15.8,30.20,ENE,78,0.0,-999.0,55,0.00,,,0.03,Wunderground v.1.15,2013-02-06 21:12:00,
2013-02-06 16:13:00,29.8,15.6,30.20,East,82,0.0,-999.0,55,0.00,,,0.03,Wunderground v.1.15,2013-02-06 21:13:00,
2013-02-06 16:14:00,29.8,15.6,30.20,ESE,103,0.0,-999.0,55,0.00,,,0.03,Wunderground v.1.15,2013-02-06 21:14:00,
2013-02-06 16:17:00,29.8,16.0,30.20,East,82,0.0,-999.0,56,0.00,,,0.03,Wunderground v.1.15,2013-02-06 21:17:00,
2013-02-06 16:19:00,29.8,16.4,30.20,ESE,119,0.0,-999.0,57,0.00,,,0.03,Wunderground v.1.15,2013-02-06 21:19:00,
2013-02-06 16:22:00,29.5,16.1,30.20,South,176,0.0,-999.0,57,0.00,,,0.03,Wunderground v.1.15,2013-02-06 21:22:00,
2013-02-06 16:24:00,29.5,16.1,30.20,SSE,150,0.0,-999.0,57,0.00,,,0.03,Wunderground v.1.15,2013-02-06 21:24:00,
2013-02-06 16:25:00,29.5,16.1,30.20,SSE,150,0.0,-999.0,57,0.00,,,0.03,Wunderground v.1.15,2013-02-06 21:25:00,
2013-02-06 16:27:00,29.4,16.0,30.20,SSE,155,0.0,-999.0,57,0.00,,,0.03,Wunderground v.1.15,2013-02-06 21:27:00,
2013-02-06 16:30:00,29.4,16.0,30.20,ESE,123,0.0,-999.0,57,0.00,,,0.03,Wunderground v.1.15,2013-02-06 21:30:00,
2013-02-06 16:31:00,29.3,15.9,30.20,ESE,113,0.0,-999.0,57,0.00,,,0.03,Wunderground v.1.15,2013-02-06 21:31:00,
2013-02-06 16:32:00,29.3,15.9,30.20,SE,136,0.0,-999.0,57,0.00,,,0.03,Wunderground v.1.15,2013-02-06 21:32:00,
2013-02-06 16:35:00,29.3,15.9,30.20,East,93,0.0,-999.0,57,0.00,,,0.03,Wunderground v.1.15,2013-02-06 21:35:00,
2013-02-06 16:36:00,29.1,15.7,30.20,East,85,0.0,-999.0,57,0.00,,,0.03,Wunderground v.1.15,2013-02-06 21:36:00,
2013-02-06 16:37:00,29.1,15.7,30.20,ENE,75,0.0,-999.0,57,0.00,,,0.03,Wunderground v.1.15,2013-02-06 21:37:00,
2013-02-06 16:40:00,29.0,16.1,30.20,East,92,1.0,-999.0,58,0.00,,,0.03,Wunderground v.1.15,2013-02-06 21:40:00,
2013-02-06 16:41:00,29.0,16.1,30.20,East,92,0.0,-999.0,58,0.00,,,0.03,Wunderground v.1.15,2013-02-06 21:41:00,
2013-02-06 16:42:00,29.0,16.1,30.20,East,92,0.0,-999.0,58,0.00,,,0.03,Wunderground v.1.15,2013-02-06 21:42:00,
2013-02-06 16:46:00,29.0,16.1,30.20,SE,133,0.0,-999.0,58,0.00,,,0.03,Wunderground v.1.15,2013-02-06 21:46:00,
2013-02-06 16:47:00,29.0,16.1,30.20,SSW,192,0.0,-999.0,58,0.00,,,0.03,Wunderground v.1.15,2013-02-06 21:47:00,
2013-02-06 16:51:00,29.0,16.4,30.20,SSW,198,1.0,-999.0,59,0.00,,,0.03,Wunderground v.1.15,2013-02-06 21:51:00,
2013-02-06 16:52:00,29.0,16.4,30.20,SSW,192,0.0,-999.0,59,0.00,,,0.03,Wunderground v.1.15,2013-02-06 21:52:00,
2013-02-06 16:53:00,29.0,16.4,30.20,SSW,192,0.0,-999.0,59,0.00,,,0.03,Wunderground v.1.15,2013-02-06 21:53:00,
2013-02-06 16:57:00,28.8,16.3,30.20,East,96,0.0,-999.0,59,0.00,,,0.03,Wunderground v.1.15,2013-02-06 21:57:00,
2013-02-06 16:59:00,28.4,15.9,30.20,ENE,65,2.0,-999.0,59,0.00,,,0.03,Wunderground v.1.15,2013-02-06 21:59:00,
2013-02-06 17:02:00,28.2,16.1,30.21,ESE,116,0.0,-999.0,60,0.00,,,0.03,Wunderground v.1.15,2013-02-06 22:02:00,
2013-02-06 17:04:00,28.2,16.1,30.21,ESE,116,0.0,-999.0,60,0.00,,,0.03,Wunderground v.1.15,2013-02-06 22:04:00,
2013-02-06 17:07:00,28.2,16.5,30.21,SE,134,1.0,-999.0,61,0.00,,,0.03,Wunderground v.1.15,2013-02-06 22:07:00,
2013-02-06 17:08:00,28.2,16.1,30.21,ESE,120,1.0,-999.0,60,0.00,,,0.03,Wunderground v.1.15,2013-02-06 22:08:00,
2013-02-06 17:09:00,28.1,16.0,30.21,South,172,0.0,-999.0,60,0.00,,,0.03,Wunderground v.1.15,2013-02-06 22:09:00,
2013-02-06 17:13:00,28.1,16.0,30.21,SSE,162,1.0,-999.0,60,0.00,,,0.03,Wunderground v.1.15,2013-02-06 22:13:00,
2013-02-06 17:14:00,28.1,16.0,30.21,ESE,117,1.0,-999.0,60,0.00,,,0.03,Wunderground v.1.15,2013-02-06 22:14:00,
2013-02-06 17:18:00,27.9,15.8,30.22,SE,136,1.0,-999.0,60,0.00,,,0.03,Wunderground v.1.15,2013-02-06 22:18:00,
2013-02-06 17:19:00,27.9,16.2,30.22,SE,131,1.0,-999.0,61,0.00,,,0.03,Wunderground v.1.15,2013-02-06 22:19:00,
2013-02-06 17:23:00,27.9,16.2,30.22,ESE,120,0.0,-999.0,61,0.00,,,0.03,Wunderground v.1.15,2013-02-06 22:23:00,
2013-02-06 17:25:00,27.8,16.1,30.22,ESE,113,0.0,-999.0,61,0.00,,,0.03,Wunderground v.1.15,2013-02-06 22:25:00,
2013-02-06 17:28:00,27.6,15.9,30.22,ESE,120,0.0,-999.0,61,0.00,,,0.03,Wunderground v.1.15,2013-02-06 22:28:00,
2013-02-06 17:29:00,27.6,15.9,30.22,ESE,120,0.0,-999.0,61,0.00,,,0.03,Wunderground v.1.15,2013-02-06 22:29:00,
2013-02-06 17:30:00,27.6,15.9,30.22,ESE,120,0.0,-999.0,61,0.00,,,0.03,Wunderground v.1.15,2013-02-06 22:30:00,
2013-02-06 17:34:00,27.5,16.2,30.23,SSE,147,0.0,-999.0,62,0.00,,,0.03,Wunderground v.1.15,2013-02-06 22:34:00,
2013-02-06 17:35:00,27.5,16.2,30.23,SSE,147,0.0,-999.0,62,0.00,,,0.03,Wunderground v.1.15,2013-02-06 22:35:00,
2013-02-06 17:39:00,27.3,16.0,30.23,SSE,147,0.0,-999.0,62,0.00,,,0.03,Wunderground v.1.15,2013-02-06 22:39:00,
2013-02-06 17:40:00,27.2,15.9,30.23,SSE,147,0.0,-999.0,62,0.00,,,0.03,Wunderground v.1.15,2013-02-06 22:40:00,
2013-02-06 17:44:00,27.0,15.7,30.23,SE,127,0.0,-999.0,62,0.00,,,0.03,Wunderground v.1.15,2013-02-06 22:44:00,
2013-02-06 17:45:00,27.0,15.7,30.23,SE,127,0.0,-999.0,62,0.00,,,0.03,Wunderground v.1.15,2013-02-06 22:45:00,
2013-02-06 17:46:00,27.0,15.7,30.24,SE,127,0.0,-999.0,62,0.00,,,0.03,Wunderground v.1.15,2013-02-06 22:46:00,
2013-02-06 17:49:00,26.9,16.0,30.24,SE,127,0.0,-999.0,63,0.00,,,0.03,Wunderground v.1.15,2013-02-06 22:49:00,
2013-02-06 17:50:00,26.9,16.0,30.24,SE,127,0.0,-999.0,63,0.00,,,0.03,Wunderground v.1.15,2013-02-06 22:50:00,
2013-02-06 17:51:00,26.9,16.0,30.24,SE,127,0.0,-999.0,63,0.00,,,0.03,Wunderground v.1.15,2013-02-06 22:51:00,
2013-02-06 17:55:00,26.7,15.8,30.24,SE,127,0.0,-999.0,63,0.00,,,0.03,Wunderground v.1.15,2013-02-06 22:55:00,
2013-02-06 17:56:00,26.7,16.1,30.24,SE,127,0.0,-999.0,64,0.00,,,0.03,Wunderground v.1.15,2013-02-06 22:56:00,
2013-02-06 17:57:00,26.7,16.1,30.24,SE,127,0.0,-999.0,64,0.00,,,0.03,Wunderground v.1.15,2013-02-06 22:57:00,
2013-02-06 18:00:00,26.6,16.1,30.25,SSW,200,0.0,-999.0,64,0.00,,,0.03,Wunderground v.1.15,2013-02-06 23:00:00,
2013-02-06 18:01:00,26.7,16.1,30.25,SSW,200,0.0,-999.0,64,0.00,,,0.03,Wunderground v.1.15,2013-02-06 23:01:00,
2013-02-06 18:02:00,26.7,16.1,30.25,SSW,200,0.0,-999.0,64,0.00,,,0.03,Wunderground v.1.15,2013-02-06 23:02:00,
2013-02-06 18:06:00,26.7,16.1,30.25,SSW,200,0.0,-999.0,64,0.00,,,0.03,Wunderground v.1.15,2013-02-06 23:06:00,
2013-02-06 18:07:00,26.7,16.5,30.25,SSW,200,1.0,-999.0,65,0.00,,,0.03,Wunderground v.1.15,2013-02-06 23:07:00,
2013-02-06 18:12:00,26.7,16.1,30.25,ESE,123,2.0,-999.0,64,0.00,,,0.03,Wunderground v.1.15,2013-02-06 23:12:00,
2013-02-06 18:13:00,26.7,16.1,30.25,South,172,0.0,-999.0,64,0.00,,,0.03,Wunderground v.1.15,2013-02-06 23:13:00,
2013-02-06 18:17:00,26.7,16.1,30.25,SSE,148,0.0,-999.0,64,0.00,,,0.03,Wunderground v.1.15,2013-02-06 23:17:00,
2013-02-06 18:18:00,26.7,16.1,30.25,SSW,208,6.0,-999.0,64,0.00,,,0.03,Wunderground v.1.15,2013-02-06 23:18:00,
2013-02-06 18:22:00,26.7,16.1,30.25,SSE,161,0.0,-999.0,64,0.00,,,0.03,Wunderground v.1.15,2013-02-06 23:22:00,
2013-02-06 18:23:00,26.6,16.1,30.25,SSE,161,0.0,-999.0,64,0.00,,,0.03,Wunderground v.1.15,2013-02-06 23:23:00,
2013-02-06 18:27:00,26.6,16.1,30.25,SSW,202,4.0,-999.0,64,0.00,,,0.03,Wunderground v.1.15,2013-02-06 23:27:00,
2013-02-06 18:29:00,26.6,16.1,30.25,South,182,0.0,-999.0,64,0.00,,,0.03,Wunderground v.1.15,2013-02-06 23:29:00,
2013-02-06 18:32:00,26.4,16.2,30.25,South,182,0.0,-999.0,65,0.00,,,0.03,Wunderground v.1.15,2013-02-06 23:32:00,
2013-02-06 18:33:00,26.4,16.2,30.25,South,182,0.0,-999.0,65,0.00,,,0.03,Wunderground v.1.15,2013-02-06 23:33:00,
2013-02-06 18:34:00,26.4,16.2,30.25,South,182,0.0,-999.0,65,0.00,,,0.03,Wunderground v.1.15,2013-02-06 23:34:00,
2013-02-06 18:35:00,26.4,16.2,30.25,South,182,0.0,-999.0,65,0.00,,,0.03,Wunderground v.1.15,2013-02-06 23:35:00,
2013-02-06 18:37:00,26.3,16.1,30.25,SSW,202,0.0,-999.0,65,0.00,,,0.03,Wunderground v.1.15,2013-02-06 23:37:00,
2013-02-06 18:38:00,26.3,16.1,30.25,SSW,202,0.0,-999.0,65,0.00,,,0.03,Wunderground v.1.15,2013-02-06 23:38:00,
2013-02-06 18:39:00,26.3,16.1,30.25,SSW,202,0.0,-999.0,65,0.00,,,0.03,Wunderground v.1.15,2013-02-06 23:39:00,
2013-02-06 18:40:00,26.3,16.1,30.25,SSW,202,0.0,-999.0,65,0.00,,,0.03,Wunderground v.1.15,2013-02-06 23:40:00,
2013-02-06 18:43:00,26.1,15.9,30.25,SSW,202,0.0,-999.0,65,0.00,,,0.03,Wunderground v.1.15,2013-02-06 23:43:00,
2013-02-06 18:44:00,26.1,15.9,30.25,SSW,200,0.0,-999.0,65,0.00,,,0.03,Wunderground v.1.15,2013-02-06 23:44:00,
2013-02-06 18:46:00,26.1,15.9,30.26,SSW,200,0.0,-999.0,65,0.00,,,0.03,Wunderground v.1.15,2013-02-06 23:46:00,
2013-02-06 18:48:00,26.0,15.8,30.26,SSW,200,1.0,-999.0,65,0.00,,,0.03,Wunderground v.1.15,2013-02-06 23:48:00,
2013-02-06 18:49:00,26.0,15.8,30.26,SSW,202,0.0,-999.0,65,0.00,,,0.03,Wunderground v.1.15,2013-02-06 23:49:00,
2013-02-06 18:51:00,26.0,16.2,30.26,SSW,199,0.0,-999.0,66,0.00,,,0.03,Wunderground v.1.15,2013-02-06 23:51:00,
2013-02-06 18:53:00,25.8,16.0,30.26,SSW,199,0.0,-999.0,66,0.00,,,0.03,Wunderground v.1.15,2013-02-06 23:53:00,
2013-02-06 18:54:00,25.8,16.0,30.26,SSW,193,1.0,-999.0,66,0.00,,,0.03,Wunderground v.1.15,2013-02-06 23:54:00,
2013-02-06 18:55:00,25.8,16.0,30.26,South,182,0.0,-999.0,66,0.00,,,0.03,Wunderground v.1.15,2013-02-06 23:55:00,
2013-02-06 18:56:00,25.8,16.0,30.26,South,178,5.0,-999.0,66,0.00,,,0.03,Wunderground v.1.15,2013-02-06 23:56:00,
2013-02-06 18:59:00,26.0,16.2,30.26,South,176,1.0,-999.0,66,0.00,,,0.03,Wunderground v.1.15,2013-02-06 23:59:00,
2013-02-06 19:00:00,26.0,16.2,30.26,South,176,1.0,-999.0,66,0.00,,,0.03,Wunderground v.1.15,2013-02-07 00:00:00,
2013-02-06 19:01:00,26.0,16.2,30.26,SSW,203,0.0,-999.0,66,0.00,,,0.03,Wunderground v.1.15,2013-02-07 00:01:00,
2013-02-06 19:04:00,25.8,16.0,30.26,South,188,0.0,-999.0,66,0.00,,,0.03,Wunderground v.1.15,2013-02-07 00:04:00,
2013-02-06 19:06:00,25.8,16.0,30.26,South,188,0.0,-999.0,66,0.00,,,0.03,Wunderground v.1.15,2013-02-07 00:06:00,
2013-02-06 19:09:00,25.7,15.9,30.26,South,185,2.0,-999.0,66,0.00,,,0.03,Wunderground v.1.15,2013-02-07 00:09:00,
2013-02-06 19:11:00,25.7,15.9,30.26,SSW,213,2.0,-999.0,66,0.00,,,0.03,Wunderground v.1.15,2013-02-07 00:11:00,
2013-02-06 19:14:00,25.7,15.9,30.26,South,169,0.0,-999.0,66,0.00,,,0.03,Wunderground v.1.15,2013-02-07 00:14:00,
2013-02-06 19:16:00,25.6,15.8,30.27,South,169,1.0,-999.0,66,0.00,,,0.03,Wunderground v.1.15,2013-02-07 00:16:00,
2013-02-06 19:17:00,25.6,15.8,30.27,South,169,0.0,-999.0,66,0.00,,,0.03,Wunderground v.1.15,2013-02-07 00:17:00,
2013-02-06 19:19:00,25.6,15.8,30.27,SSW,198,3.0,-999.0,66,0.00,,,0.03,Wunderground v.1.15,2013-02-07 00:19:00,
2013-02-06 19:20:00,25.6,15.8,30.27,SSW,196,1.0,-999.0,66,0.00,,,0.03,Wunderground v.1.15,2013-02-07 00:20:00,
2013-02-06 19:22:00,25.6,15.8,30.27,South,178,0.0,-999.0,66,0.00,,,0.03,Wunderground v.1.15,2013-02-07 00:22:00,
2013-02-06 19:25:00,25.6,15.8,30.27,South,189,0.0,-999.0,66,0.00,,,0.03,Wunderground v.1.15,2013-02-07 00:25:00,
2013-02-06 19:27:00,25.6,15.8,30.27,South,172,0.0,-999.0,66,0.00,,,0.03,Wunderground v.1.15,2013-02-07 00:27:00,
2013-02-06 19:28:00,25.6,15.8,30.27,South,172,0.0,-999.0,66,0.00,,,0.03,Wunderground v.1.15,2013-02-07 00:28:00,
2013-02-06 19:30:00,25.4,15.6,30.27,SSW,195,2.0,-999.0,66,0.00,,,0.03,Wunderground v.1.15,2013-02-07 00:30:00,
2013-02-06 19:32:00,25.4,15.6,30.27,South,186,0.0,-999.0,66,0.00,,,0.03,Wunderground v.1.15,2013-02-07 00:32:00,
2013-02-06 19:33:00,25.3,15.5,30.27,South,186,0.0,-999.0,66,0.00,,,0.03,Wunderground v.1.15,2013-02-07 00:33:00,
2013-02-06 19:35:00,25.3,15.5,30.27,South,186,3.0,-999.0,66,0.00,,,0.03,Wunderground v.1.15,2013-02-07 00:35:00,
2013-02-06 19:37:00,25.3,15.5,30.27,South,178,0.0,-999.0,66,0.00,,,0.03,Wunderground v.1.15,2013-02-07 00:37:00,
2013-02-06 19:38:00,25.3,15.5,30.27,South,178,0.0,-999.0,66,0.00,,,0.03,Wunderground v.1.15,2013-02-07 00:38:00,
2013-02-06 19:40:00,25.3,15.5,30.27,SE,124,0.0,-999.0,66,0.00,,,0.03,Wunderground v.1.15,2013-02-07 00:40:00,
2013-02-06 19:42:00,25.3,15.5,30.27,South,184,1.0,-999.0,66,0.00,,,0.03,Wunderground v.1.15,2013-02-07 00:42:00,
2013-02-06 19:43:00,25.1,15.0,30.27,South,184,0.0,-999.0,65,0.00,,,0.03,Wunderground v.1.15,2013-02-07 00:43:00,
2013-02-06 19:45:00,25.1,15.0,30.26,South,181,0.0,-999.0,65,0.00,,,0.03,Wunderground v.1.15,2013-02-07 00:45:00,
2013-02-06 19:46:00,25.1,15.0,30.26,South,181,0.0,-999.0,65,0.00,,,0.03,Wunderground v.1.15,2013-02-07 00:46:00,
2013-02-06 19:47:00,25.1,15.0,30.26,South,181,0.0,-999.0,65,0.00,,,0.03,Wunderground v.1.15,2013-02-07 00:47:00,
2013-02-06 19:48:00,25.1,15.3,30.26,SSW,199,0.0,-999.0,66,0.00,,,0.03,Wunderground v.1.15,2013-02-07 00:48:00,
2013-02-06 19:51:00,25.1,15.0,30.26,SSW,195,1.0,-999.0,65,0.00,,,0.03,Wunderground v.1.15,2013-02-07 00:51:00,
2013-02-06 19:52:00,25.1,15.0,30.26,South,175,1.0,-999.0,65,0.00,,,0.03,Wunderground v.1.15,2013-02-07 00:52:00,
2013-02-06 19:54:00,25.1,15.0,30.26,South,175,0.0,-999.0,65,0.00,,,0.03,Wunderground v.1.15,2013-02-07 00:54:00,
2013-02-06 19:56:00,25.1,15.0,30.26,South,169,0.0,-999.0,65,0.00,,,0.03,Wunderground v.1.15,2013-02-07 00:56:00,
2013-02-06 19:57:00,25.1,15.0,30.26,South,169,0.0,-999.0,65,0.00,,,0.03,Wunderground v.1.15,2013-02-07 00:57:00,
2013-02-06 19:59:00,25.1,15.0,30.26,South,169,0.0,-999.0,65,0.00,,,0.03,Wunderground v.1.15,2013-02-07 00:59:00,
2013-02-06 20:01:00,25.0,14.9,30.27,South,169,0.0,-999.0,65,0.00,,,0.03,Wunderground v.1.15,2013-02-07 01:01:00,
2013-02-06 20:02:00,25.0,14.9,30.27,South,169,0.0,-999.0,65,0.00,,,0.03,Wunderground v.1.15,2013-02-07 01:02:00,
2013-02-06 20:05:00,25.0,14.9,30.27,South,175,0.0,-999.0,65,0.00,,,0.03,Wunderground v.1.15,2013-02-07 01:05:00,
2013-02-06 20:06:00,25.0,14.9,30.27,South,175,0.0,-999.0,65,0.00,,,0.03,Wunderground v.1.15,2013-02-07 01:06:00,
2013-02-06 20:07:00,24.8,14.7,30.27,South,175,0.0,-999.0,65,0.00,,,0.03,Wunderground v.1.15,2013-02-07 01:07:00,
2013-02-06 20:08:00,24.8,14.7,30.27,South,175,0.0,-999.0,65,0.00,,,0.03,Wunderground v.1.15,2013-02-07 01:08:00,
2013-02-06 20:10:00,24.8,14.7,30.27,South,175,1.0,-999.0,65,0.00,,,0.03,Wunderground v.1.15,2013-02-07 01:10:00,
2013-02-06 20:12:00,24.8,14.7,30.27,South,191,0.0,-999.0,65,0.00,,,0.03,Wunderground v.1.15,2013-02-07 01:12:00,
2013-02-06 20:13:00,24.8,14.7,30.27,South,188,1.0,-999.0,65,0.00,,,0.03,Wunderground v.1.15,2013-02-07 01:13:00,
2013-02-06 20:16:00,24.8,14.7,30.27,South,188,0.0,-999.0,65,0.00,,,0.03,Wunderground v.1.15,2013-02-07 01:16:00,
2013-02-06 20:18:00,24.8,14.7,30.27,South,184,0.0,-999.0,65,0.00,,,0.03,Wunderground v.1.15,2013-02-07 01:18:00,
2013-02-06 20:21:00,24.8,14.7,30.27,South,186,0.0,-999.0,65,0.00,,,0.03,Wunderground v.1.15,2013-02-07 01:21:00,
2013-02-06 20:24:00,24.8,14.7,30.27,South,186,0.0,-999.0,65,0.00,,,0.03,Wunderground v.1.15,2013-02-07 01:24:00,
2013-02-06 20:25:00,24.8,14.7,30.27,SSW,208,2.0,-999.0,65,0.00,,,0.03,Wunderground v.1.15,2013-02-07 01:25:00,
2013-02-06 20:26:00,24.8,14.7,30.27,SSW,199,0.0,-999.0,65,0.00,,,0.03,Wunderground v.1.15,2013-02-07 01:26:00,
2013-02-06 20:29:00,24.8,14.7,30.27,SSW,199,0.0,-999.0,65,0.00,,,0.03,Wunderground v.1.15,2013-02-07 01:29:00,
2013-02-06 20:30:00,24.8,14.7,30.27,SSW,199,0.0,-999.0,65,0.00,,,0.03,Wunderground v.1.15,2013-02-07 01:30:00,
2013-02-06 20:31:00,24.8,14.7,30.27,SSW,199,0.0,-999.0,65,0.00,,,0.03,Wunderground v.1.15,2013-02-07 01:31:00,
2013-02-06 20:34:00,24.7,14.6,30.27,South,189,0.0,-999.0,65,0.00,,,0.03,Wunderground v.1.15,2013-02-07 01:34:00,
2013-02-06 20:35:00,24.7,14.6,30.27,South,189,0.0,-999.0,65,0.00,,,0.03,Wunderground v.1.15,2013-02-07 01:35:00,
2013-02-06 20:36:00,24.7,14.6,30.27,South,189,0.0,-999.0,65,0.00,,,0.03,Wunderground v.1.15,2013-02-07 01:36:00,
2013-02-06 20:40:00,24.5,14.4,30.27,South,189,0.0,-999.0,65,0.00,,,0.03,Wunderground v.1.15,2013-02-07 01:40:00,
2013-02-06 20:42:00,24.5,14.4,30.27,South,189,0.0,-999.0,65,0.00,,,0.03,Wunderground v.1.15,2013-02-07 01:42:00,
2013-02-06 20:45:00,24.4,14.3,30.27,South,189,0.0,-999.0,65,0.00,,,0.03,Wunderground v.1.15,2013-02-07 01:45:00,
2013-02-06 20:46:00,24.4,14.3,30.26,South,189,0.0,-999.0,65,0.00,,,0.03,Wunderground v.1.15,2013-02-07 01:46:00,
2013-02-06 20:47:00,24.4,14.7,30.26,South,189,0.0,-999.0,66,0.00,,,0.03,Wunderground v.1.15,2013-02-07 01:47:00,
2013-02-06 20:51:00,24.2,14.5,30.26,South,189,0.0,-999.0,66,0.00,,,0.03,Wunderground v.1.15,2013-02-07 01:51:00,
2013-02-06 20:54:00,24.2,14.8,30.26,South,189,0.0,-999.0,67,0.00,,,0.03,Wunderground v.1.15,2013-02-07 01:54:00,
2013-02-06 20:56:00,24.2,14.8,30.26,South,189,0.0,-999.0,67,0.00,,,0.03,Wunderground v.1.15,2013-02-07 01:56:00,
2013-02-06 20:59:00,24.1,14.7,30.26,South,189,0.0,-999.0,67,0.00,,,0.03,Wunderground v.1.15,2013-02-07 01:59:00,
2013-02-06 21:01:00,24.1,14.7,30.25,South,189,0.0,-999.0,67,0.00,,,0.03,Wunderground v.1.15,2013-02-07 02:01:00,
2013-02-06 21:04:00,24.1,14.7,30.25,South,189,0.0,-999.0,67,0.00,,,0.03,Wunderground v.1.15,2013-02-07 02:04:00,
2013-02-06 21:06:00,23.9,14.9,30.25,South,189,0.0,-999.0,68,0.00,,,0.03,Wunderground v.1.15,2013-02-07 02:06:00,
2013-02-06 21:07:00,24.1,15.1,30.25,South,189,0.0,-999.0,68,0.00,,,0.03,Wunderground v.1.15,2013-02-07 02:07:00,
2013-02-06 21:10:00,23.9,15.2,30.25,South,189,0.0,-999.0,69,0.00,,,0.03,Wunderground v.1.15,2013-02-07 02:10:00,
2013-02-06 21:11:00,23.9,15.2,30.25,South,189,0.0,-999.0,69,0.00,,,0.03,Wunderground v.1.15,2013-02-07 02:11:00,
2013-02-06 21:12:00,24.1,15.4,30.25,South,189,0.0,-999.0,69,0.00,,,0.03,Wunderground v.1.15,2013-02-07 02:12:00,
2013-02-06 21:14:00,24.1,15.4,30.25,South,189,0.0,-999.0,69,0.00,,,0.03,Wunderground v.1.15,2013-02-07 02:14:00,
2013-02-06 21:15:00,24.1,15.4,30.25,South,189,0.0,-999.0,69,0.00,,,0.03,Wunderground v.1.15,2013-02-07 02:15:00,
2013-02-06 21:16:00,24.1,15.4,30.25,South,189,0.0,-999.0,69,0.00,,,0.03,Wunderground v.1.15,2013-02-07 02:16:00,
2013-02-06 21:17:00,23.9,15.2,30.25,South,189,0.0,-999.0,69,0.00,,,0.03,Wunderground v.1.15,2013-02-07 02:17:00,
2013-02-06 21:19:00,23.9,15.2,30.25,South,189,0.0,-999.0,69,0.00,,,0.03,Wunderground v.1.15,2013-02-07 02:19:00,
2013-02-06 21:20:00,23.9,15.2,30.25,South,189,0.0,-999.0,69,0.00,,,0.03,Wunderground v.1.15,2013-02-07 02:20:00,
2013-02-06 21:21:00,23.9,15.2,30.25,South,189,0.0,-999.0,69,0.00,,,0.03,Wunderground v.1.15,2013-02-07 02:21:00,
2013-02-06 21:22:00,23.9,15.2,30.25,South,189,0.0,-999.0,69,0.00,,,0.03,Wunderground v.1.15,2013-02-07 02:22:00,
2013-02-06 21:24:00,23.9,15.2,30.25,South,189,0.0,-999.0,69,0.00,,,0.03,Wunderground v.1.15,2013-02-07 02:24:00,
2013-02-06 21:25:00,23.9,15.2,30.25,South,189,0.0,-999.0,69,0.00,,,0.03,Wunderground v.1.15,2013-02-07 02:25:00,
2013-02-06 21:27:00,23.9,14.9,30.25,South,189,0.0,-999.0,68,0.00,,,0.03,Wunderground v.1.15,2013-02-07 02:27:00,
2013-02-06 21:29:00,23.9,14.9,30.25,South,189,0.0,-999.0,68,0.00,,,0.03,Wunderground v.1.15,2013-02-07 02:29:00,
2013-02-06 21:30:00,23.9,14.9,30.25,South,189,0.0,-999.0,68,0.00,,,0.03,Wunderground v.1.15,2013-02-07 02:30:00,
2013-02-06 21:32:00,23.9,14.9,30.24,SSW,196,0.0,-999.0,68,0.00,,,0.03,Wunderground v.1.15,2013-02-07 02:32:00,
2013-02-06 21:33:00,23.9,14.9,30.24,SSW,196,0.0,-999.0,68,0.00,,,0.03,Wunderground v.1.15,2013-02-07 02:33:00,
2013-02-06 21:34:00,23.9,14.9,30.24,SSW,196,0.0,-999.0,68,0.00,,,0.03,Wunderground v.1.15,2013-02-07 02:34:00,
2013-02-06 21:35:00,23.8,14.4,30.24,SSW,196,0.0,-999.0,67,0.00,,,0.03,Wunderground v.1.15,2013-02-07 02:35:00,
2013-02-06 21:38:00,23.8,14.4,30.24,SSW,196,0.0,-999.0,67,0.00,,,0.03,Wunderground v.1.15,2013-02-07 02:38:00,
2013-02-06 21:39:00,23.8,14.4,30.24,SSW,196,0.0,-999.0,67,0.00,,,0.03,Wunderground v.1.15,2013-02-07 02:39:00,
2013-02-06 21:41:00,23.6,14.2,30.24,SSW,196,0.0,-999.0,67,0.00,,,0.03,Wunderground v.1.15,2013-02-07 02:41:00,
2013-02-06 21:44:00,23.6,14.2,30.24,SSW,196,0.0,-999.0,67,0.00,,,0.03,Wunderground v.1.15,2013-02-07 02:44:00,
2013-02-06 21:45:00,23.6,14.2,30.24,SSW,196,0.0,-999.0,67,0.00,,,0.03,Wunderground v.1.15,2013-02-07 02:45:00,
2013-02-06 21:47:00,23.6,14.2,30.23,SSW,196,0.0,-999.0,67,0.00,,,0.03,Wunderground v.1.15,2013-02-07 02:47:00,
2013-02-06 21:49:00,23.5,14.1,30.23,SSW,196,0.0,-999.0,67,0.00,,,0.03,Wunderground v.1.15,2013-02-07 02:49:00,
2013-02-06 21:50:00,23.5,14.1,30.23,SSW,196,0.0,-999.0,67,0.00,,,0.03,Wunderground v.1.15,2013-02-07 02:50:00,
2013-02-06 21:51:00,23.5,14.5,30.23,SSW,196,0.0,-999.0,68,0.00,,,0.03,Wunderground v.1.15,2013-02-07 02:51:00,
2013-02-06 21:52:00,23.5,14.5,30.23,SSW,196,0.0,-999.0,68,0.00,,,0.03,Wunderground v.1.15,2013-02-07 02:52:00,
2013-02-06 21:54:00,23.5,14.5,30.23,SSW,196,0.0,-999.0,68,0.00,,,0.03,Wunderground v.1.15,2013-02-07 02:54:00,
2013-02-06 21:56:00,23.3,14.3,30.23,SSW,196,0.0,-999.0,68,0.00,,,0.03,Wunderground v.1.15,2013-02-07 02:56:00,
2013-02-06 21:58:00,23.3,14.3,30.23,SSW,196,0.0,-999.0,68,0.00,,,0.03,Wunderground v.1.15,2013-02-07 02:58:00,
2013-02-06 21:59:00,23.3,14.3,30.23,SSW,196,0.0,-999.0,68,0.00,,,0.03,Wunderground v.1.15,2013-02-07 02:59:00,
2013-02-06 22:01:00,23.3,14.3,30.24,SSW,196,0.0,-999.0,68,0.00,,,0.03,Wunderground v.1.15,2013-02-07 03:01:00,
2013-02-06 22:02:00,23.3,14.3,30.24,SSW,196,0.0,-999.0,68,0.00,,,0.03,Wunderground v.1.15,2013-02-07 03:02:00,
2013-02-06 22:03:00,23.3,14.3,30.24,SSW,196,0.0,-999.0,68,0.00,,,0.03,Wunderground v.1.15,2013-02-07 03:03:00,
2013-02-06 22:05:00,23.2,14.2,30.24,SSW,196,0.0,-999.0,68,0.00,,,0.03,Wunderground v.1.15,2013-02-07 03:05:00,
2013-02-06 22:06:00,23.2,14.2,30.24,SSW,196,0.0,-999.0,68,0.00,,,0.03,Wunderground v.1.15,2013-02-07 03:06:00,
2013-02-06 22:07:00,23.2,14.2,30.24,SSW,196,0.0,-999.0,68,0.00,,,0.03,Wunderground v.1.15,2013-02-07 03:07:00,
2013-02-06 22:08:00,23.2,14.2,30.24,SSW,196,0.0,-999.0,68,0.00,,,0.03,Wunderground v.1.15,2013-02-07 03:08:00,
2013-02-06 22:11:00,23.0,14.0,30.24,SSW,196,0.0,-999.0,68,0.00,,,0.03,Wunderground v.1.15,2013-02-07 03:11:00,
2013-02-06 22:13:00,23.0,14.0,30.24,SSW,196,0.0,-999.0,68,0.00,,,0.03,Wunderground v.1.15,2013-02-07 03:13:00,
2013-02-06 22:16:00,23.0,14.3,30.23,SSW,196,0.0,-999.0,69,0.00,,,0.03,Wunderground v.1.15,2013-02-07 03:16:00,
2013-02-06 22:18:00,23.0,14.3,30.23,SSW,196,0.0,-999.0,69,0.00,,,0.03,Wunderground v.1.15,2013-02-07 03:18:00,
2013-02-06 22:19:00,23.0,14.3,30.23,SSW,196,0.0,-999.0,69,0.00,,,0.03,Wunderground v.1.15,2013-02-07 03:19:00,
2013-02-06 22:21:00,22.9,14.2,30.23,SSW,196,0.0,-999.0,69,0.00,,,0.03,Wunderground v.1.15,2013-02-07 03:21:00,
2013-02-06 22:22:00,22.9,14.2,30.23,SSW,196,0.0,-999.0,69,0.00,,,0.03,Wunderground v.1.15,2013-02-07 03:22:00,
2013-02-06 22:23:00,22.9,14.2,30.23,SSW,196,0.0,-999.0,69,0.00,,,0.03,Wunderground v.1.15,2013-02-07 03:23:00,
2013-02-06 22:24:00,22.9,14.2,30.23,SSW,196,0.0,-999.0,69,0.00,,,0.03,Wunderground v.1.15,2013-02-07 03:24:00,
2013-02-06 22:26:00,22.9,14.2,30.23,SSW,196,0.0,-999.0,69,0.00,,,0.03,Wunderground v.1.15,2013-02-07 03:26:00,
2013-02-06 22:27:00,22.9,14.2,30.23,SSW,196,0.0,-999.0,69,0.00,,,0.03,Wunderground v.1.15,2013-02-07 03:27:00,
2013-02-06 22:29:00,22.9,14.2,30.23,SSW,196,0.0,-999.0,69,0.00,,,0.03,Wunderground v.1.15,2013-02-07 03:29:00,
2013-02-06 22:30:00,22.9,14.2,30.23,SSW,196,0.0,-999.0,69,0.00,,,0.03,Wunderground v.1.15,2013-02-07 03:30:00,
2013-02-06 22:32:00,22.9,14.2,30.23,SSW,196,0.0,-999.0,69,0.00,,,0.03,Wunderground v.1.15,2013-02-07 03:32:00,
2013-02-06 22:34:00,22.9,14.6,30.23,SSW,196,0.0,-999.0,70,0.00,,,0.03,Wunderground v.1.15,2013-02-07 03:34:00,
2013-02-06 22:36:00,22.9,14.6,30.23,SSW,196,0.0,-999.0,70,0.00,,,0.03,Wunderground v.1.15,2013-02-07 03:36:00,
2013-02-06 22:37:00,22.9,14.6,30.23,SSW,196,0.0,-999.0,70,0.00,,,0.03,Wunderground v.1.15,2013-02-07 03:37:00,
2013-02-06 22:38:00,23.0,14.7,30.23,SSW,196,0.0,-999.0,70,0.00,,,0.03,Wunderground v.1.15,2013-02-07 03:38:00,
2013-02-06 22:39:00,23.0,14.7,30.23,SSW,196,0.0,-999.0,70,0.00,,,0.03,Wunderground v.1.15,2013-02-07 03:39:00,
2013-02-06 22:42:00,23.2,14.9,30.23,SSW,196,0.0,-999.0,70,0.00,,,0.03,Wunderground v.1.15,2013-02-07 03:42:00,
2013-02-06 22:43:00,23.2,14.9,30.23,SSW,196,0.0,-999.0,70,0.00,,,0.03,Wunderground v.1.15,2013-02-07 03:43:00,
2013-02-06 22:46:00,23.3,15.0,30.21,SSW,196,0.0,-999.0,70,0.00,,,0.03,Wunderground v.1.15,2013-02-07 03:46:00,
2013-02-06 22:47:00,23.3,15.0,30.21,SSW,196,0.0,-999.0,70,0.00,,,0.03,Wunderground v.1.15,2013-02-07 03:47:00,
2013-02-06 22:48:00,23.3,15.0,30.21,SSW,196,0.0,-999.0,70,0.00,,,0.03,Wunderground v.1.15,2013-02-07 03:48:00,
2013-02-06 22:51:00,23.5,15.1,30.21,SSW,196,0.0,-999.0,70,0.00,,,0.03,Wunderground v.1.15,2013-02-07 03:51:00,
2013-02-06 22:53:00,23.5,15.1,30.21,SSW,196,0.0,-999.0,70,0.00,,,0.03,Wunderground v.1.15,2013-02-07 03:53:00,
2013-02-06 22:56:00,23.5,15.1,30.21,SSW,196,0.0,-999.0,70,0.00,,,0.03,Wunderground v.1.15,2013-02-07 03:56:00,
2013-02-06 22:58:00,23.6,15.2,30.21,SSW,196,0.0,-999.0,70,0.00,,,0.03,Wunderground v.1.15,2013-02-07 03:58:00,
2013-02-06 22:59:00,23.6,15.2,30.21,SSW,196,0.0,-999.0,70,0.00,,,0.03,Wunderground v.1.15,2013-02-07 03:59:00,
2013-02-06 23:01:00,23.6,15.2,30.21,SSW,196,0.0,-999.0,70,0.00,,,0.03,Wunderground v.1.15,2013-02-07 04:01:00,
2013-02-06 23:03:00,23.6,15.2,30.21,SSW,196,0.0,-999.0,70,0.00,,,0.03,Wunderground v.1.15,2013-02-07 04:03:00,
2013-02-06 23:05:00,23.6,15.2,30.21,SSE,167,0.0,-999.0,70,0.00,,,0.03,Wunderground v.1.15,2013-02-07 04:05:00,
2013-02-06 23:06:00,23.6,15.2,30.21,SSE,167,0.0,-999.0,70,0.00,,,0.03,Wunderground v.1.15,2013-02-07 04:06:00,
2013-02-06 23:09:00,23.6,15.2,30.21,SSE,167,0.0,-999.0,70,0.00,,,0.03,Wunderground v.1.15,2013-02-07 04:09:00,
2013-02-06 23:10:00,23.6,15.2,30.21,SSE,167,0.0,-999.0,70,0.00,,,0.03,Wunderground v.1.15,2013-02-07 04:10:00,
2013-02-06 23:11:00,23.6,15.2,30.21,SSE,167,0.0,-999.0,70,0.00,,,0.03,Wunderground v.1.15,2013-02-07 04:11:00,
2013-02-06 23:15:00,23.6,15.2,30.21,SSE,167,0.0,-999.0,70,0.00,,,0.03,Wunderground v.1.15,2013-02-07 04:15:00,
2013-02-06 23:16:00,23.8,15.4,30.21,SSE,167,0.0,-999.0,70,0.00,,,0.03,Wunderground v.1.15,2013-02-07 04:16:00,
2013-02-06 23:18:00,23.8,15.4,30.21,SSE,148,0.0,-999.0,70,0.00,,,0.03,Wunderground v.1.15,2013-02-07 04:18:00,
2013-02-06 23:20:00,23.8,15.4,30.21,SSE,148,0.0,-999.0,70,0.00,,,0.03,Wunderground v.1.15,2013-02-07 04:20:00,
2013-02-06 23:21:00,23.8,15.4,30.21,SSE,148,0.0,-999.0,70,0.00,,,0.03,Wunderground v.1.15,2013-02-07 04:21:00,
2013-02-06 23:22:00,23.8,15.4,30.21,SSE,148,0.0,-999.0,70,0.00,,,0.03,Wunderground v.1.15,2013-02-07 04:22:00,
2013-02-06 23:23:00,23.8,15.4,30.21,SSE,148,0.0,-999.0,70,0.00,,,0.03,Wunderground v.1.15,2013-02-07 04:23:00,
2013-02-06 23:25:00,23.8,15.4,30.21,SSE,148,0.0,-999.0,70,0.00,,,0.03,Wunderground v.1.15,2013-02-07 04:25:00,
2013-02-06 23:26:00,23.8,15.4,30.21,SSE,148,0.0,-999.0,70,0.00,,,0.03,Wunderground v.1.15,2013-02-07 04:26:00,
2013-02-06 23:28:00,23.8,15.4,30.21,SSE,148,0.0,-999.0,70,0.00,,,0.03,Wunderground v.1.15,2013-02-07 04:28:00,
2013-02-06 23:31:00,23.9,15.5,30.21,South,185,1.0,-999.0,70,0.00,,,0.03,Wunderground v.1.15,2013-02-07 04:31:00,
2013-02-06 23:33:00,23.9,15.2,30.21,South,185,1.0,-999.0,69,0.00,,,0.03,Wunderground v.1.15,2013-02-07 04:33:00,
2013-02-06 23:36:00,23.9,15.2,30.21,South,185,0.0,-999.0,69,0.00,,,0.03,Wunderground v.1.15,2013-02-07 04:36:00,
2013-02-06 23:37:00,23.9,15.2,30.21,South,185,0.0,-999.0,69,0.00,,,0.03,Wunderground v.1.15,2013-02-07 04:37:00,
2013-02-06 23:41:00,24.1,15.4,30.21,SSE,158,0.0,-999.0,69,0.00,,,0.03,Wunderground v.1.15,2013-02-07 04:41:00,
2013-02-06 23:42:00,24.1,15.4,30.21,SSE,158,0.0,-999.0,69,0.00,,,0.03,Wunderground v.1.15,2013-02-07 04:42:00,
2013-02-06 23:46:00,24.1,15.4,30.22,SSE,158,0.0,-999.0,69,0.00,,,0.03,Wunderground v.1.15,2013-02-07 04:46:00,
2013-02-06 23:47:00,24.1,15.4,30.22,SSE,158,0.0,-999.0,69,0.00,,,0.03,Wunderground v.1.15,2013-02-07 04:47:00,
2013-02-06 23:48:00,24.1,15.7,30.22,SSE,158,0.0,-999.0,70,0.00,,,0.03,Wunderground v.1.15,2013-02-07 04:48:00,
2013-02-06 23:52:00,24.1,15.7,30.22,SSE,158,0.0,-999.0,70,0.00,,,0.03,Wunderground v.1.15,2013-02-07 04:52:00,
2013-02-06 23:53:00,24.1,15.7,30.22,SSE,158,0.0,-999.0,70,0.00,,,0.03,Wunderground v.1.15,2013-02-07 04:53:00,
2013-02-06 23:57:00,24.1,15.7,30.22,SSE,158,0.0,-999.0,70,0.00,,,0.03,Wunderground v.1.15,2013-02-07 04:57:00,
2013-02-06 23:58:00,24.1,15.7,30.22,SSE,158,0.0,-999.0,70,0.00,,,0.03,Wunderground v.1.15,2013-02-07 04:58:00,